WA4BPS Weather Reports


Display with metric or nautical units.
time (UTC)temp
F
wind
direction
speed
MPH
gust
MPH
rain 1hr
in
rain 24hr
in
rain mn
in
humidity
%
barometer
mb
20260508060232 54 164 6.0 11.0 0.00 0.00 0.00 68 1012.5
20260508060206 54 172 6.0 11.0 0.00 0.00 0.00 68 1012.5
20260508060103 54 148 6.0 11.0 0.00 0.00 0.00 68 1012.5
20260508055940 54 260 7.0 11.0 0.00 0.00 0.00 68 1012.5
20260508055839 54 330 5.0 10.0 0.00 0.00 0.00 68 1012.7
20260508055737 54 164 6.0 10.0 0.00 0.00 0.00 68 1012.7
20260508055636 54 85 7.0 10.0 0.00 0.00 0.00 68 1012.7
20260508055533 54 322 5.0 10.0 0.00 0.00 0.00 68 1012.7
20260508055436 54 320 6.0 10.0 0.00 0.00 0.00 68 1012.7
20260508055334 54 192 6.0 10.0 0.00 0.00 0.00 69 1012.7
20260508055231 54 113 7.0 10.0 0.00 0.00 0.00 68 1012.7
20260508055130 54 332 5.0 10.0 0.00 0.00 0.00 68 1012.7
20260508055028 54 271 5.0 10.0 0.00 0.00 0.00 68 1012.7
20260508054946 54 315 4.0 10.0 0.00 0.00 0.00 67 1012.7
20260508054904 54 329 3.0 10.0 0.00 0.00 0.00 66 1012.7
20260508054738 54 216 7.0 10.0 0.00 0.00 0.00 67 1012.7
20260508054648 54 237 4.0 10.0 0.00 0.00 0.00 67 1012.7
20260508054525 54 292 5.0 10.0 0.00 0.00 0.00 67 1012.7
20260508054444 54 282 3.0 10.0 0.00 0.00 0.00 67 1012.7
20260508054341 54 200 4.0 10.0 0.00 0.00 0.00 66 1012.6
20260508054240 54 244 6.0 10.0 0.00 0.00 0.00 66 1012.6
20260508054139 54 208 7.0 10.0 0.00 0.00 0.00 67 1012.6
20260508054038 54 325 6.0 10.0 0.00 0.00 0.00 68 1012.6
20260508053940 54 148 5.0 10.0 0.00 0.00 0.00 67 1012.6
20260508053841 54 93 6.0 10.0 0.00 0.00 0.00 67 1012.6
20260508053738 54 282 6.0 10.0 0.00 0.00 0.00 67 1012.6
20260508053637 54 121 4.0 8.0 0.00 0.00 0.00 67 1012.6
20260508053535 54 210 5.0 8.0 0.00 0.00 0.00 67 1012.6
20260508053433 54 282 6.0 8.0 0.00 0.00 0.00 68 1012.6
20260508053336 54 216 5.0 8.0 0.00 0.00 0.00 67 1012.6
20260508053256 54 308 3.0 8.0 0.00 0.00 0.00 66 1012.6
20260508053227 54 104 4.0 8.0 0.00 0.00 0.00 65 1012.6
20260508053042 55 320 4.0 8.0 0.00 0.00 0.00 65 1012.6
20260508053001 55 308 3.0 8.0 0.00 0.00 0.00 65 1012.6
20260508052838 55 281 4.0 8.0 0.00 0.00 0.00 66 1012.6
20260508052736 55 224 4.0 8.0 0.00 0.00 0.00 66 1012.6
20260508052635 55 209 5.0 8.0 0.00 0.00 0.00 65 1012.6
20260508052534 55 140 5.0 8.0 0.00 0.00 0.00 65 1012.6
20260508052457 55 244 3.0 8.0 0.00 0.00 0.00 65 1012.6
20260508052334 55 330 4.0 8.0 0.00 0.00 0.00 65 1012.6
20260508052232 55 313 5.0 8.0 0.00 0.00 0.00 65 1012.6
20260508052130 55 76 7.0 8.0 0.00 0.00 0.00 65 1012.6
20260508052029 55 175 6.0 8.0 0.00 0.00 0.00 66 1012.6
20260508051929 55 329 5.0 8.0 0.00 0.00 0.00 65 1012.6
20260508051827 55 79 4.0 8.0 0.00 0.00 0.00 64 1012.6
20260508051741 55 195 6.0 8.0 0.00 0.00 0.00 64 1012.6
20260508051651 55 210 6.0 8.0 0.00 0.00 0.00 64 1012.6
20260508051529 55 76 6.0 8.0 0.00 0.00 0.00 65 1012.6
20260508051426 55 124 6.0 8.0 0.00 0.00 0.00 65 1012.6
20260508051344 55 329 3.0 7.0 0.00 0.00 0.00 65 1012.6
20260508051242 55 205 3.0 7.0 0.00 0.00 0.00 65 1012.6
20260508051140 55 274 4.0 7.0 0.00 0.00 0.00 65 1012.6
20260508051040 55 229 3.0 7.0 0.00 0.00 0.00 65 1012.6
20260508051003 55 165 4.0 7.0 0.00 0.00 0.00 66 1012.6
20260508050839 55 291 4.0 7.0 0.00 0.00 0.00 68 1012.6
20260508050759 55 323 4.0 7.0 0.00 0.00 0.00 68 1012.6
20260508050636 55 295 5.0 7.0 0.00 0.00 0.00 68 1012.6
20260508050533 55 212 2.0 6.0 0.00 0.00 0.00 67 1012.6
20260508050432 55 330 1.0 6.0 0.00 0.00 0.00 66 1012.6
20260508050350 55 333 2.0 6.0 0.00 0.00 0.00 66 1012.6
20260508050248 55 233 3.0 6.0 0.00 0.00 0.00 65 1012.6
20260508050156 55 329 2.0 6.0 0.00 0.00 0.00 65 1012.6
20260508050038 55 260 2.0 6.0 0.00 0.00 0.00 66 1012.6
20260508045935 55 137 3.0 7.0 0.00 0.00 0.00 67 1012.6
20260508045834 55 329 3.0 7.0 0.00 0.00 0.00 66 1012.4
20260508045755 55 330 4.0 7.0 0.00 0.00 0.00 65 1012.4
20260508045632 55 332 4.0 7.0 0.00 0.00 0.00 65 1012.4
20260508045531 55 332 4.0 7.0 0.00 0.00 0.00 66 1012.4
20260508045431 55 332 4.0 8.0 0.00 0.00 0.00 66 1012.4
20260508045337 55 332 3.0 8.0 0.00 0.00 0.00 66 1012.4
20260508045235 55 330 5.0 8.0 0.00 0.00 0.00 67 1012.4
20260508045133 55 220 4.0 8.0 0.00 0.00 0.00 67 1012.4
20260508045032 55 215 2.0 8.0 0.00 0.00 0.00 66 1012.4
20260508044932 55 240 2.0 8.0 0.00 0.00 0.00 66 1012.4
20260508044829 55 330 3.0 8.0 0.00 0.00 0.00 66 1012.4
20260508044749 55 329 3.0 8.0 0.00 0.00 0.00 66 1012.4
20260508044658 56 332 3.0 8.0 0.00 0.00 0.00 66 1012.4
20260508044540 56 330 1.0 6.0 0.00 0.00 0.00 65 1012.4
20260508044440 56 332 2.0 7.0 0.00 0.00 0.00 66 1012.4
20260508044337 56 333 3.0 7.0 0.00 0.00 0.00 66 1012.3
20260508044236 56 332 5.0 7.0 0.00 0.00 0.00 65 1012.3
20260508044135 56 277 5.0 7.0 0.00 0.00 0.00 65 1012.3
20260508044053 56 244 2.0 7.0 0.00 0.00 0.00 65 1012.3
20260508043931 56 333 1.0 7.0 0.00 0.00 0.00 64 1012.3
20260508043834 56 168 2.0 8.0 0.00 0.00 0.00 65 1012.3
20260508043732 56 330 3.0 8.0 0.00 0.00 0.00 66 1012.3
20260508043650 56 332 3.0 8.0 0.00 0.00 0.00 65 1012.3
20260508043527 56 281 3.0 8.0 0.00 0.00 0.00 65 1012.3
20260508043425 56 224 1.0 8.0 0.00 0.00 0.00 65 1012.3
20260508043326 56 148 4.0 8.0 0.00 0.00 0.00 65 1012.3
20260508043226 56 332 5.0 8.0 0.00 0.00 0.00 65 1012.3
20260508043200 56 229 2.0 8.0 0.00 0.00 0.00 65 1012.3
20260508043036 56 333 2.0 8.0 0.00 0.00 0.00 66 1012.3
20260508042935 56 226 6.0 8.0 0.00 0.00 0.00 66 1012.3
20260508042834 56 240 2.0 8.0 0.00 0.00 0.00 65 1012.5
20260508042733 56 284 5.0 8.0 0.00 0.00 0.00 65 1012.5
20260508042632 56 241 3.0 6.0 0.00 0.00 0.00 65 1012.5
20260508042530 56 291 3.0 6.0 0.00 0.00 0.00 65 1012.5
20260508042432 56 332 3.0 6.0 0.00 0.00 0.00 65 1012.5
20260508042330 56 213 2.0 6.0 0.00 0.00 0.00 65 1012.5
20260508042249 56 328 2.0 6.0 0.00 0.00 0.00 64 1012.5
20260508042129 56 333 3.0 6.0 0.00 0.00 0.00 64 1012.5
20260508042027 56 332 4.0 6.0 0.00 0.00 0.00 63 1012.5
20260508041926 56 326 2.0 8.0 0.00 0.00 0.00 64 1012.5
20260508041826 56 236 5.0 8.0 0.00 0.00 0.00 64 1012.5
20260508041757 56 131 3.0 8.0 0.00 0.00 0.00 65 1012.5
20260508041649 56 333 2.0 8.0 0.00 0.00 0.00 65 1012.5
20260508041527 56 202 3.0 8.0 0.00 0.00 0.00 64 1012.5
20260508041425 56 210 4.0 8.0 0.00 0.00 0.00 65 1012.5
20260508041343 56 188 3.0 8.0 0.00 0.00 0.00 64 1012.7
20260508041243 56 296 3.0 8.0 0.00 0.00 0.00 64 1012.7
20260508041142 57 237 5.0 8.0 0.00 0.00 0.00 63 1012.7
20260508041041 57 332 4.0 8.0 0.00 0.00 0.00 64 1012.7
20260508040924 57 316 2.0 7.0 0.00 0.00 0.00 64 1012.7
20260508040843 57 294 1.0 8.0 0.00 0.00 0.00 65 1012.7
20260508040741 57 127 1.0 8.0 0.00 0.00 0.00 65 1012.7
20260508040640 57 288 3.0 8.0 0.00 0.00 0.00 64 1012.7
20260508040539 57 226 2.0 8.0 0.00 0.00 0.00 63 1012.7
20260508040438 57 212 2.0 8.0 0.00 0.00 0.00 63 1012.7
20260508040336 57 272 3.0 8.0 0.00 0.00 0.00 63 1012.7
20260508040242 57 328 3.0 8.0 0.00 0.00 0.00 63 1012.7
20260508040212 57 150 2.0 8.0 0.00 0.00 0.00 63 1012.7
20260508040028 57 27 6.0 8.0 0.00 0.00 0.00 63 1012.7
20260508035927 57 88 3.0 7.0 0.00 0.00 0.00 63 1012.7
20260508035845 57 332 4.0 7.0 0.00 0.00 0.00 62 1012.6
20260508035742 57 323 3.0 7.0 0.00 0.00 0.00 62 1012.6
20260508035642 57 76 2.0 7.0 0.00 0.00 0.00 62 1012.6
20260508035541 57 104 3.0 7.0 0.00 0.00 0.00 62 1012.6
20260508035459 57 313 5.0 7.0 0.00 0.00 0.00 63 1012.6
20260508035341 57 112 3.0 7.0 0.00 0.00 0.00 63 1012.6
20260508035240 57 325 3.0 7.0 0.00 0.00 0.00 62 1012.6
20260508035138 57 330 4.0 7.0 0.00 0.00 0.00 63 1012.6
20260508035036 57 203 4.0 6.0 0.00 0.00 0.00 63 1012.6
20260508034935 57 200 4.0 6.0 0.00 0.00 0.00 62 1012.6
20260508034853 57 309 4.0 6.0 0.00 0.00 0.00 62 1012.6
20260508034740 57 318 3.0 6.0 0.00 0.00 0.00 62 1012.6
20260508034653 57 330 2.0 6.0 0.00 0.00 0.00 61 1012.6
20260508034532 57 326 2.0 6.0 0.00 0.00 0.00 61 1012.6
20260508034430 57 275 5.0 6.0 0.00 0.00 0.00 61 1012.6
20260508034348 57 322 4.0 6.0 0.00 0.00 0.00 62 1012.7
20260508034307 57 251 4.0 6.0 0.00 0.00 0.00 62 1012.7
20260508034204 57 332 4.0 7.0 0.00 0.00 0.00 61 1012.7
20260508034102 57 333 4.0 7.0 0.00 0.00 0.00 61 1012.7
20260508033940 57 350 4.0 7.0 0.00 0.00 0.00 61 1012.7
20260508033839 57 330 5.0 7.0 0.00 0.00 0.00 61 1012.7
20260508033741 57 359 3.0 7.0 0.00 0.00 0.00 61 1012.7
20260508033700 57 333 3.0 7.0 0.00 0.00 0.00 63 1012.7
20260508033536 57 332 4.0 7.0 0.00 0.00 0.00 62 1012.7
20260508033435 57 339 3.0 7.0 0.00 0.00 0.00 62 1012.7
20260508033334 57 360 5.0 8.0 0.00 0.00 0.00 62 1012.7
20260508033252 57 113 4.0 8.0 0.00 0.00 0.00 62 1012.7
20260508033223 57 330 3.0 8.0 0.00 0.00 0.00 61 1012.7
20260508033039 57 360 4.0 8.0 0.00 0.00 0.00 60 1012.7
20260508032941 57 332 3.0 8.0 0.00 0.00 0.00 60 1012.7
20260508032840 58 359 3.0 8.0 0.00 0.00 0.00 59 1012.5
20260508032759 58 342 3.0 8.0 0.00 0.00 0.00 61 1012.5
20260508032637 58 333 5.0 8.0 0.00 0.00 0.00 59 1012.5
20260508032535 58 330 5.0 8.0 0.00 0.00 0.00 59 1012.5
20260508032434 58 346 5.0 8.0 0.00 0.00 0.00 59 1012.5
20260508032332 58 333 5.0 8.0 0.00 0.00 0.00 59 1012.5
20260508032234 58 332 5.0 8.0 0.00 0.00 0.00 59 1012.5
20260508032132 58 333 6.0 8.0 0.00 0.00 0.00 58 1012.5
20260508032030 58 349 6.0 8.0 0.00 0.00 0.00 58 1012.5
20260508031929 58 332 5.0 8.0 0.00 0.00 0.00 59 1012.5
20260508031827 58 352 7.0 8.0 0.00 0.00 0.00 59 1012.5
20260508031736 58 329 3.0 8.0 0.00 0.00 0.00 60 1012.5
20260508031645 58 306 6.0 9.0 0.00 0.00 0.00 59 1012.5
20260508031526 58 332 4.0 10.0 0.00 0.00 0.00 59 1012.5
20260508031425 58 328 6.0 10.0 0.00 0.00 0.00 57 1012.5
20260508031344 58 335 5.0 10.0 0.00 0.00 0.00 57 1012.7
20260508031242 58 330 6.0 10.0 0.00 0.00 0.00 57 1012.7
20260508031142 58 350 3.0 10.0 0.00 0.00 0.00 59 1012.7
20260508031041 58 332 5.0 10.0 0.00 0.00 0.00 59 1012.7
20260508030940 58 332 6.0 10.0 0.00 0.00 0.00 60 1012.7
20260508030841 58 332 6.0 10.0 0.00 0.00 0.00 59 1012.7
20260508030740 58 346 5.0 10.0 0.00 0.00 0.00 58 1012.7
20260508030639 58 323 6.0 10.0 0.00 0.00 0.00 59 1012.7
20260508030536 58 335 5.0 10.0 0.00 0.00 0.00 59 1012.7
20260508030434 58 328 5.0 10.0 0.00 0.00 0.00 59 1012.7
20260508030332 58 329 5.0 10.0 0.00 0.00 0.00 58 1012.7
20260508030231 58 330 4.0 10.0 0.00 0.00 0.00 57 1012.7
20260508030206 58 330 5.0 10.0 0.00 0.00 0.00 57 1012.7
20260508030103 58 330 6.0 10.0 0.00 0.00 0.00 58 1012.7
20260508025941 58 330 6.0 9.0 0.00 0.00 0.00 58 1012.7
20260508025839 58 330 6.0 9.0 0.00 0.00 0.00 57 1012.5
20260508025738 58 360 6.0 9.0 0.00 0.00 0.00 57 1012.5
20260508025636 58 347 4.0 9.0 0.00 0.00 0.00 56 1012.5
20260508025535 58 319 5.0 9.0 0.00 0.00 0.00 57 1012.5
20260508025455 58 330 6.0 9.0 0.00 0.00 0.00 57 1012.5
20260508025337 58 330 7.0 9.0 0.00 0.00 0.00 58 1012.5
20260508025236 58 340 5.0 9.0 0.00 0.00 0.00 58 1012.5
20260508025134 58 329 5.0 10.0 0.00 0.00 0.00 57 1012.5
20260508025033 58 343 4.0 10.0 0.00 0.00 0.00 58 1012.5
20260508024931 58 330 6.0 10.0 0.00 0.00 0.00 57 1012.5
20260508024827 58 352 4.0 10.0 0.00 0.00 0.00 56 1012.5
20260508024726 58 339 5.0 10.0 0.00 0.00 0.00 56 1012.5
20260508024657 58 342 6.0 10.0 0.00 0.00 0.00 56 1012.5
20260508024559 58 332 5.0 10.0 0.00 0.00 0.00 57 1012.5
20260508024436 58 329 5.0 10.0 0.00 0.00 0.00 57 1012.5
20260508024334 58 329 7.0 10.0 0.00 0.00 0.00 56 1012.5
20260508024235 58 326 4.0 8.0 0.00 0.00 0.00 57 1012.5
20260508024132 58 330 6.0 8.0 0.00 0.00 0.00 59 1012.5
20260508024030 58 346 6.0 8.0 0.00 0.00 0.00 58 1012.5
20260508023929 58 332 5.0 8.0 0.00 0.00 0.00 57 1012.5
20260508023852 58 342 5.0 8.0 0.00 0.00 0.00 56 1012.5
20260508023729 58 330 5.0 8.0 0.00 0.00 0.00 58 1012.5
20260508023627 58 336 4.0 8.0 0.00 0.00 0.00 57 1012.5
20260508023526 58 333 6.0 8.0 0.00 0.00 0.00 57 1012.5
20260508023426 58 330 5.0 8.0 0.00 0.00 0.00 57 1012.5
20260508023324 58 332 5.0 8.0 0.00 0.00 0.00 57 1012.5
20260508023243 58 93 5.0 8.0 0.00 0.00 0.00 57 1012.5
20260508023158 58 336 4.0 8.0 0.00 0.00 0.00 57 1012.5
20260508023055 58 329 5.0 8.0 0.00 0.00 0.00 57 1012.5
20260508022932 58 85 5.0 8.0 0.00 0.00 0.00 58 1012.5
20260508022830 58 282 6.0 8.0 0.00 0.00 0.00 59 1012.3
20260508022749 58 332 3.0 8.0 0.00 0.00 0.00 59 1012.3
20260508022628 58 336 5.0 8.0 0.00 0.00 0.00 59 1012.3
20260508022526 58 349 6.0 8.0 0.00 0.00 0.00 58 1012.3
20260508022424 58 306 4.0 8.0 0.00 0.00 0.00 57 1012.3
20260508022327 58 102 3.0 8.0 0.00 0.00 0.00 57 1012.3
20260508022226 58 330 7.0 8.0 0.00 0.00 0.00 56 1012.3
20260508022124 58 329 5.0 8.0 0.00 0.00 0.00 56 1012.3
20260508022042 58 329 5.0 8.0 0.00 0.00 0.00 57 1012.3
20260508021941 58 330 4.0 8.0 0.00 0.00 0.00 57 1012.3
20260508021838 58 332 4.0 8.0 0.00 0.00 0.00 57 1012.3
20260508021736 58 332 6.0 8.0 0.00 0.00 0.00 56 1012.3
20260508021644 58 333 5.0 8.0 0.00 0.00 0.00 56 1012.3
20260508021527 58 325 6.0 8.0 0.00 0.00 0.00 57 1012.3
20260508021445 58 326 6.0 8.0 0.00 0.00 0.00 58 1012.3
20260508021342 58 333 5.0 8.0 0.00 0.00 0.00 57 1012.3
20260508021240 58 329 6.0 8.0 0.00 0.00 0.00 58 1012.3
20260508021139 58 333 6.0 8.0 0.00 0.00 0.00 56 1012.3
20260508021038 58 332 3.0 8.0 0.00 0.00 0.00 58 1012.3
20260508020937 58 339 3.0 8.0 0.00 0.00 0.00 58 1012.3
20260508020838 58 330 4.0 8.0 0.00 0.00 0.00 58 1012.3
20260508020736 58 328 5.0 8.0 0.00 0.00 0.00 57 1012.3
20260508020635 58 335 5.0 8.0 0.00 0.00 0.00 58 1012.3
20260508020534 58 326 7.0 8.0 0.00 0.00 0.00 57 1012.3
20260508020453 58 330 5.0 7.0 0.00 0.00 0.00 56 1012.3
20260508020330 58 332 5.0 7.0 0.00 0.00 0.00 57 1012.3
20260508020228 58 339 6.0 7.0 0.00 0.00 0.00 57 1012.3
20260508020158 58 332 6.0 7.0 0.00 0.00 0.00 57 1012.3
20260508020039 58 332 5.0 7.0 0.00 0.00 0.00 56 1012.3
20260508015938 58 344 4.0 8.0 0.00 0.00 0.00 57 1012.3
20260508015837 58 330 5.0 8.0 0.00 0.00 0.00 59 1012.1
20260508015736 58 332 5.0 8.0 0.00 0.00 0.00 59 1012.1
20260508015634 58 333 4.0 8.0 0.00 0.00 0.00 59 1012.1
20260508015532 58 328 4.0 8.0 0.00 0.00 0.00 59 1012.1
20260508015434 58 332 3.0 8.0 0.00 0.00 0.00 60 1012.1
20260508015332 58 323 4.0 8.0 0.00 0.00 0.00 60 1012.1
20260508015229 58 340 4.0 8.0 0.00 0.00 0.00 59 1012.1
20260508015129 58 332 5.0 10.0 0.00 0.00 0.00 59 1012.1
20260508015028 58 330 4.0 10.0 0.00 0.00 0.00 59 1012.1
20260508014927 58 329 3.0 10.0 0.00 0.00 0.00 59 1012.1
20260508014826 58 339 5.0 10.0 0.00 0.00 0.00 59 1012.1
20260508014745 58 332 5.0 10.0 0.00 0.00 0.00 59 1012.1
20260508014718 58 332 5.0 10.0 0.00 0.00 0.00 59 1012.1
20260508014538 58 329 6.0 10.0 0.00 0.00 0.00 59 1012.1
20260508014438 58 347 5.0 10.0 0.00 0.00 0.00 59 1012.1
20260508014358 58 339 5.0 10.0 0.00 0.00 0.00 60 1012.0
20260508014236 58 332 7.0 10.0 0.00 0.00 0.00 60 1012.0
20260508014135 58 332 5.0 8.0 0.00 0.00 0.00 61 1012.0
20260508014033 58 332 5.0 8.0 0.00 0.00 0.00 60 1012.0
20260508013935 58 329 3.0 8.0 0.00 0.00 0.00 60 1012.0
20260508013833 58 336 5.0 8.0 0.00 0.00 0.00 60 1012.0
20260508013732 58 335 6.0 9.0 0.00 0.00 0.00 59 1012.0
20260508013629 58 332 6.0 9.0 0.00 0.00 0.00 60 1012.0
20260508013528 58 344 6.0 9.0 0.00 0.00 0.00 60 1012.0
20260508013427 58 339 6.0 9.0 0.00 0.00 0.00 61 1012.0
20260508013325 58 332 4.0 9.0 0.00 0.00 0.00 62 1012.0
20260508013227 58 329 6.0 9.0 0.00 0.00 0.00 61 1012.0
20260508013158 58 339 4.0 9.0 0.00 0.00 0.00 61 1012.0
20260508013035 58 339 6.0 9.0 0.00 0.00 0.00 62 1012.0
20260508012934 58 332 5.0 9.0 0.00 0.00 0.00 62 1012.0
20260508012831 58 333 4.0 10.0 0.00 0.00 0.00 62 1011.8
20260508012734 58 339 5.0 10.0 0.00 0.00 0.00 61 1011.8
20260508012632 58 330 4.0 10.0 0.00 0.00 0.00 61 1011.8
20260508012535 58 333 4.0 10.0 0.00 0.00 0.00 61 1011.8
20260508012434 58 326 5.0 10.0 0.00 0.00 0.00 60 1011.8
20260508012332 58 339 5.0 10.0 0.00 0.00 0.00 60 1011.8
20260508012232 58 330 5.0 10.0 0.00 0.00 0.00 60 1011.8
20260508012128 58 329 2.0 10.0 0.00 0.00 0.00 59 1011.8
20260508012027 58 344 6.0 10.0 0.00 0.00 0.00 60 1011.8
20260508011927 58 340 4.0 8.0 0.00 0.00 0.00 60 1011.8
20260508011831 58 328 6.0 8.0 0.00 0.00 0.00 60 1011.8
20260508011749 58 330 6.0 8.0 0.00 0.00 0.00 61 1011.8
20260508011719 58 323 5.0 8.0 0.00 0.00 0.00 62 1011.8
20260508011536 58 332 4.0 8.0 0.00 0.00 0.00 62 1011.8
20260508011434 58 333 2.0 7.0 0.00 0.00 0.00 61 1011.8
20260508011332 58 329 5.0 7.0 0.00 0.00 0.00 60 1011.5
20260508011232 58 332 3.0 8.0 0.00 0.00 0.00 62 1011.5
20260508011150 58 340 4.0 8.0 0.00 0.00 0.00 62 1011.5
20260508011030 58 329 2.0 8.0 0.00 0.00 0.00 62 1011.5
20260508010928 58 329 5.0 10.0 0.00 0.00 0.00 61 1011.5
20260508010827 58 329 4.0 10.0 0.00 0.00 0.00 61 1011.5
20260508010725 58 332 4.0 10.0 0.00 0.00 0.00 60 1011.5
20260508010624 58 332 6.0 10.0 0.00 0.00 0.00 60 1011.5
20260508010542 58 332 5.0 10.0 0.00 0.00 0.00 60 1011.5
20260508010442 58 336 5.0 10.0 0.00 0.00 0.00 61 1011.5
20260508010324 58 332 5.0 10.0 0.00 0.00 0.00 60 1011.5
20260508010243 58 335 5.0 10.0 0.00 0.00 0.00 60 1011.5
20260508010214 58 332 7.0 10.0 0.00 0.00 0.00 60 1011.5
20260508010049 58 332 4.0 8.0 0.00 0.00 0.00 60 1011.5
20260508005929 58 330 5.0 8.0 0.00 0.00 0.00 61 1011.5
20260508005828 58 330 3.0 8.0 0.00 0.00 0.00 62 1011.6
20260508005726 58 337 4.0 8.0 0.00 0.00 0.00 62 1011.6
20260508005628 58 332 5.0 8.0 0.00 0.00 0.00 62 1011.6
20260508005531 58 326 4.0 8.0 0.00 0.00 0.00 62 1011.6
20260508005454 58 333 6.0 8.0 0.00 0.00 0.00 62 1011.6
20260508005331 58 330 2.0 8.0 0.00 0.00 0.00 61 1011.6
20260508005253 58 332 3.0 8.0 0.00 0.00 0.00 62 1011.6
20260508005131 58 332 4.0 8.0 0.00 0.00 0.00 62 1011.6
20260508005029 58 332 3.0 8.0 0.00 0.00 0.00 62 1011.6
20260508004929 58 333 5.0 8.0 0.00 0.00 0.00 61 1011.6
20260508004831 58 332 6.0 8.0 0.00 0.00 0.00 63 1011.6
20260508004802 58 332 5.0 8.0 0.00 0.00 0.00 63 1011.6
20260508004651 58 330 5.0 8.0 0.00 0.00 0.00 63 1011.6
20260508004529 59 332 4.0 7.0 0.00 0.00 0.00 63 1011.6
20260508004447 59 332 2.0 7.0 0.00 0.00 0.00 63 1011.6
20260508004405 59 332 4.0 7.0 0.00 0.00 0.00 63 1011.6
20260508004242 59 332 2.0 7.0 0.00 0.00 0.00 63 1011.6
20260508004202 59 332 4.0 7.0 0.00 0.00 0.00 63 1011.6
20260508004040 59 333 4.0 7.0 0.00 0.00 0.00 63 1011.6
20260508003943 59 332 3.0 7.0 0.00 0.00 0.00 64 1011.6
20260508003902 59 332 4.0 7.0 0.00 0.00 0.00 65 1011.6
20260508003739 59 332 4.0 7.0 0.00 0.00 0.00 64 1011.6
20260508003636 59 326 4.0 7.0 0.00 0.00 0.00 63 1011.6
20260508003535 59 335 4.0 7.0 0.00 0.00 0.00 63 1011.6
20260508003433 59 332 5.0 7.0 0.00 0.00 0.00 63 1011.6
20260508003331 59 326 4.0 7.0 0.00 0.00 0.00 63 1011.6
20260508003234 59 330 4.0 7.0 0.00 0.00 0.00 64 1011.6
20260508003205 59 332 3.0 7.0 0.00 0.00 0.00 64 1011.6
20260508003042 59 332 3.0 7.0 0.00 0.00 0.00 64 1011.6
20260508002939 59 330 3.0 7.0 0.00 0.00 0.00 64 1011.6
20260508002837 59 326 2.0 7.0 0.00 0.00 0.00 64 1011.2
20260508002736 59 332 4.0 7.0 0.00 0.00 0.00 64 1011.2
20260508002634 59 332 4.0 7.0 0.00 0.00 0.00 63 1011.2
20260508002553 59 332 6.0 7.0 0.00 0.00 0.00 63 1011.2
20260508002434 59 330 4.0 8.0 0.00 0.00 0.00 62 1011.2
20260508002333 59 332 3.0 8.0 0.00 0.00 0.00 62 1011.2
20260508002231 59 330 4.0 8.0 0.00 0.00 0.00 62 1011.2
20260508002130 59 332 3.0 8.0 0.00 0.00 0.00 62 1011.2
20260508002028 59 330 5.0 8.0 0.00 0.00 0.00 62 1011.2
20260508001926 59 332 3.0 8.0 0.00 0.00 0.00 62 1011.2
20260508001830 59 325 4.0 8.0 0.00 0.00 0.00 62 1011.2
20260508001739 59 330 5.0 8.0 0.00 0.00 0.00 61 1011.2
20260508001648 59 333 5.0 8.0 0.00 0.00 0.00 61 1011.2
20260508001526 59 322 4.0 8.0 0.00 0.00 0.00 62 1011.2
20260508001424 59 330 4.0 8.0 0.00 0.00 0.00 62 1011.2
20260508001342 59 332 5.0 8.0 0.00 0.00 0.00 62 1011.0
20260508001240 59 332 4.0 8.0 0.00 0.00 0.00 61 1011.0
20260508001138 59 332 5.0 8.0 0.00 0.00 0.00 62 1011.0
20260508001101 59 328 5.0 8.0 0.00 0.00 0.00 63 1011.0
20260508000939 59 332 6.0 8.0 0.00 0.00 0.00 62 1011.0
20260508000837 59 335 4.0 8.0 0.00 0.00 0.00 63 1011.0
20260508000735 59 332 4.0 8.0 0.00 0.00 0.00 62 1011.0
20260508000633 59 330 3.0 8.0 0.00 0.00 0.00 62 1011.0
20260508000533 59 332 3.0 8.0 0.00 0.00 0.00 61 1011.0
20260508000452 59 330 3.0 8.0 0.00 0.00 0.00 62 1011.0
20260508000334 59 332 4.0 8.0 0.00 0.00 0.00 62 1011.0
20260508000234 60 332 3.0 8.0 0.00 0.00 0.00 62 1011.0
20260508000205 60 330 4.0 8.0 0.00 0.00 0.00 62 1011.0
20260508000041 60 329 4.0 7.0 0.00 0.00 0.00 62 1011.0
20260507235940 60 329 6.0 7.0 0.00 0.00 0.00 62 1011.0
20260507235858 60 332 3.0 7.0 0.00 0.00 0.00 62 1011.0
20260507235736 60 330 3.0 8.0 0.00 0.00 0.00 62 1011.0
20260507235633 60 329 3.0 8.0 0.00 0.00 0.00 62 1011.0
20260507235536 60 332 4.0 8.0 0.00 0.00 0.00 62 1011.0
20260507235439 60 333 5.0 8.0 0.00 0.00 0.00 62 1011.0
20260507235337 60 329 4.0 8.0 0.00 0.00 0.00 62 1011.0
20260507235235 60 323 4.0 8.0 0.00 0.00 0.00 62 1011.0
20260507235133 60 329 4.0 8.0 0.00 0.00 0.00 61 1011.0
20260507235030 60 332 4.0 8.0 0.00 0.00 0.00 61 1011.0
20260507234929 60 330 5.0 8.0 0.00 0.00 0.00 62 1011.0
20260507234832 60 329 4.0 6.0 0.00 0.00 0.00 61 1011.0
20260507234740 60 330 4.0 6.0 0.00 0.00 0.00 62 1011.0
20260507234648 60 323 4.0 6.0 0.00 0.00 0.00 63 1011.0
20260507234527 60 320 2.0 6.0 0.00 0.00 0.00 62 1011.0
20260507234447 60 328 3.0 7.0 0.00 0.00 0.00 62 1011.0
20260507234325 60 329 4.0 7.0 0.00 0.00 0.00 61 1010.9
20260507234244 60 328 4.0 7.0 0.00 0.00 0.00 61 1010.9
20260507234204 60 333 3.0 7.0 0.00 0.00 0.00 62 1010.9
20260507234045 60 332 4.0 7.0 0.00 0.00 0.00 63 1010.9
20260507233943 60 330 2.0 7.0 0.00 0.00 0.00 64 1010.9
20260507233841 60 325 3.0 7.0 0.00 0.00 0.00 63 1010.9
20260507233739 60 328 5.0 7.0 0.00 0.00 0.00 63 1010.9
20260507233636 60 330 6.0 7.0 0.00 0.00 0.00 62 1010.9
20260507233554 60 323 4.0 7.0 0.00 0.00 0.00 62 1010.9
20260507233431 60 329 4.0 7.0 0.00 0.00 0.00 62 1010.9
20260507233329 60 335 6.0 7.0 0.00 0.00 0.00 64 1010.9
20260507233238 60 328 4.0 8.0 0.00 0.00 0.00 63 1010.9
20260507233152 60 343 2.0 8.0 0.00 0.00 0.00 63 1010.9
20260507233048 60 328 2.0 8.0 0.00 0.00 0.00 63 1010.9
20260507232946 60 337 4.0 8.0 0.00 0.00 0.00 63 1010.9
20260507232904 60 328 3.0 8.0 0.00 0.00 0.00 63 1010.9
20260507232742 60 328 3.0 8.0 0.00 0.00 0.00 63 1010.9
20260507232659 60 330 3.0 8.0 0.00 0.00 0.00 62 1010.9
20260507232537 60 330 3.0 8.0 0.00 0.00 0.00 62 1010.9
20260507232456 61 330 5.0 8.0 0.00 0.00 0.00 62 1010.9
20260507232333 61 329 1.0 8.0 0.00 0.00 0.00 63 1010.9
20260507232253 61 339 3.0 8.0 0.00 0.00 0.00 61 1010.9
20260507232135 61 325 5.0 9.0 0.00 0.00 0.00 61 1010.9
20260507232032 61 330 3.0 9.0 0.00 0.00 0.00 60 1010.9
20260507231932 61 337 3.0 9.0 0.00 0.00 0.00 62 1010.9
20260507231831 61 335 6.0 9.0 0.00 0.00 0.00 62 1010.9
20260507231729 61 330 2.0 9.0 0.00 0.00 0.00 61 1010.9
20260507231659 61 332 4.0 9.0 0.00 0.00 0.00 61 1010.9
20260507231537 61 340 5.0 9.0 0.00 0.00 0.00 62 1010.9
20260507231438 61 322 4.0 9.0 0.00 0.00 0.00 62 1010.9
20260507231337 61 326 4.0 9.0 0.00 0.00 0.00 62 1010.8
20260507231236 61 333 6.0 9.0 0.00 0.00 0.00 62 1010.8
20260507231134 61 330 4.0 9.0 0.00 0.00 0.00 62 1010.8
20260507231033 61 330 4.0 9.0 0.00 0.00 0.00 62 1010.8
20260507230930 61 330 3.0 9.0 0.00 0.00 0.00 62 1010.8
20260507230849 61 330 4.0 9.0 0.00 0.00 0.00 62 1010.8
20260507230730 61 332 5.0 10.0 0.00 0.00 0.00 62 1010.8
20260507230628 61 329 3.0 11.0 0.00 0.00 0.00 62 1010.8
20260507230528 61 329 4.0 11.0 0.00 0.00 0.00 63 1010.8
20260507230430 61 328 3.0 11.0 0.00 0.00 0.00 63 1010.8
20260507230329 61 350 5.0 11.0 0.00 0.00 0.00 62 1010.8
20260507230238 61 330 3.0 11.0 0.00 0.00 0.00 62 1010.8
20260507230148 61 332 4.0 11.0 0.00 0.00 0.00 62 1010.8
20260507230028 61 328 6.0 11.0 0.00 0.00 0.00 62 1010.8
20260507225927 61 330 4.0 11.0 0.00 0.00 0.00 63 1010.8
20260507225827 61 330 5.0 11.0 0.00 0.00 0.00 62 1010.9
20260507225745 61 329 2.0 9.0 0.00 0.00 0.00 62 1010.9
20260507225704 61 343 2.0 9.0 0.00 0.00 0.00 62 1010.9
20260507225602 61 328 2.0 9.0 0.00 0.00 0.00 62 1010.9
20260507225500 61 325 4.0 9.0 0.00 0.00 0.00 62 1010.9
20260507225337 61 328 2.0 9.0 0.00 0.00 0.00 62 1010.9
20260507225234 61 329 4.0 9.0 0.00 0.00 0.00 63 1010.9
20260507225136 61 320 4.0 9.0 0.00 0.00 0.00 63 1010.9
20260507225054 61 326 5.0 9.0 0.00 0.00 0.00 63 1010.9
20260507224931 61 330 6.0 9.0 0.00 0.00 0.00 62 1010.9
20260507224829 61 330 5.0 8.0 0.00 0.00 0.00 62 1010.9
20260507224738 61 332 5.0 8.0 0.00 0.00 0.00 63 1010.9
20260507224648 61 320 4.0 8.0 0.00 0.00 0.00 62 1010.9
20260507224526 61 332 2.0 6.0 0.00 0.00 0.00 63 1010.9
20260507224424 61 330 1.0 7.0 0.00 0.00 0.00 62 1010.9
20260507224326 61 329 2.0 7.0 0.00 0.00 0.00 62 1010.8
20260507224225 61 328 3.0 7.0 0.00 0.00 0.00 62 1010.8
20260507224143 61 329 3.0 7.0 0.00 0.00 0.00 63 1010.8
20260507224042 61 326 5.0 7.0 0.00 0.00 0.00 63 1010.8
20260507223941 61 326 3.0 8.0 0.00 0.00 0.00 62 1010.8
20260507223858 61 330 1.0 8.0 0.00 0.00 0.00 62 1010.8
20260507223736 61 336 3.0 8.0 0.00 0.00 0.00 63 1010.8
20260507223634 61 330 6.0 8.0 0.00 0.00 0.00 62 1010.8
20260507223536 61 329 2.0 8.0 0.00 0.00 0.00 62 1010.8
20260507223435 61 339 1.0 8.0 0.00 0.00 0.00 61 1010.8
20260507223333 61 332 2.0 8.0 0.00 0.00 0.00 61 1010.8
20260507223251 61 330 4.0 8.0 0.00 0.00 0.00 61 1010.8
20260507223222 61 349 5.0 8.0 0.00 0.00 0.00 61 1010.8
20260507223037 61 328 3.0 8.0 0.00 0.00 0.00 61 1010.8
20260507222936 61 330 2.0 7.0 0.00 0.00 0.00 60 1010.8
20260507222836 61 329 4.0 7.0 0.00 0.00 0.00 61 1010.8
20260507222740 61 344 4.0 8.0 0.00 0.00 0.00 60 1010.8
20260507222659 61 342 3.0 8.0 0.00 0.00 0.00 61 1010.8
20260507222536 61 322 1.0 8.0 0.00 0.00 0.00 60 1010.8
20260507222435 61 332 3.0 11.0 0.00 0.00 0.00 60 1010.8
20260507222333 62 332 3.0 11.0 0.00 0.00 0.00 61 1010.8
20260507222251 61 330 4.0 11.0 0.00 0.00 0.00 62 1010.8
20260507222149 62 339 3.0 11.0 0.00 0.00 0.00 61 1010.8
20260507222025 62 328 4.0 11.0 0.00 0.00 0.00 61 1010.8
20260507221928 62 326 4.0 11.0 0.00 0.00 0.00 61 1010.8
20260507221827 62 328 3.0 11.0 0.00 0.00 0.00 62 1010.8
20260507221745 62 332 3.0 11.0 0.00 0.00 0.00 63 1010.8
20260507221654 62 330 5.0 11.0 0.00 0.00 0.00 63 1010.8
20260507221533 62 333 3.0 11.0 0.00 0.00 0.00 64 1010.8
20260507221431 62 330 3.0 11.0 0.00 0.00 0.00 63 1010.8
20260507221331 62 330 1.0 11.0 0.00 0.00 0.00 61 1010.7
20260507221228 62 329 2.0 11.0 0.00 0.00 0.00 62 1010.7
20260507221131 62 330 3.0 11.0 0.00 0.00 0.00 60 1010.7
20260507221029 62 330 4.0 11.0 0.00 0.00 0.00 60 1010.7
20260507220927 62 330 7.0 14.0 0.00 0.00 0.00 61 1010.7
20260507220825 62 330 7.0 14.0 0.00 0.00 0.00 62 1010.7
20260507220724 62 329 7.0 14.0 0.00 0.00 0.00 60 1010.7
20260507220643 62 328 6.0 14.0 0.00 0.00 0.00 59 1010.7
20260507220541 62 326 4.0 14.0 0.00 0.00 0.00 61 1010.7
20260507220443 62 325 4.0 14.0 0.00 0.00 0.00 61 1010.7
20260507220343 62 323 4.0 14.0 0.00 0.00 0.00 62 1010.7
20260507220224 62 328 7.0 14.0 0.00 0.00 0.00 62 1010.7
20260507220156 62 329 9.0 14.0 0.00 0.00 0.00 62 1010.7
20260507220031 62 330 5.0 14.0 0.00 0.00 0.00 61 1010.7
20260507215931 62 329 4.0 14.0 0.00 0.00 0.00 61 1010.7
20260507215830 62 326 6.0 14.0 0.00 0.00 0.00 60 1010.5
20260507215734 62 336 7.0 14.0 0.00 0.00 0.00 61 1010.5
20260507215632 62 349 6.0 14.0 0.00 0.00 0.00 61 1010.5
20260507215530 62 330 11.0 14.0 0.00 0.00 0.00 62 1010.5
20260507215428 62 328 4.0 14.0 0.00 0.00 0.00 62 1010.5
20260507215330 62 333 3.0 14.0 0.00 0.00 0.00 61 1010.5
20260507215229 62 325 3.0 14.0 0.00 0.00 0.00 61 1010.5
20260507215128 62 332 2.0 14.0 0.00 0.00 0.00 60 1010.5
20260507215031 62 326 0.0 14.0 0.00 0.00 0.00 59 1010.5
20260507214930 62 326 5.0 14.0 0.00 0.00 0.00 61 1010.5
20260507214829 62 325 7.0 14.0 0.00 0.00 0.00 61 1010.5
20260507214727 62 322 10.0 14.0 0.00 0.00 0.00 61 1010.5
20260507214657 62 328 9.0 14.0 0.00 0.00 0.00 61 1010.5
20260507214556 62 329 5.0 11.0 0.00 0.00 0.00 60 1010.5
20260507214434 62 330 4.0 11.0 0.00 0.00 0.00 61 1010.5
20260507214336 62 333 4.0 11.0 0.00 0.00 0.00 62 1010.7
20260507214237 62 330 6.0 11.0 0.00 0.00 0.00 63 1010.7
20260507214137 62 318 3.0 11.0 0.00 0.00 0.00 61 1010.7
20260507214034 62 320 4.0 11.0 0.00 0.00 0.00 61 1010.7
20260507213935 62 330 6.0 11.0 0.00 0.00 0.00 61 1010.7
20260507213854 62 329 6.0 11.0 0.00 0.00 0.00 62 1010.7
20260507213733 62 328 9.0 11.0 0.00 0.00 0.00 61 1010.7
20260507213635 62 330 5.0 11.0 0.00 0.00 0.00 63 1010.7
20260507213533 62 277 7.0 11.0 0.00 0.00 0.00 62 1010.7
20260507213432 62 42 2.0 9.0 0.00 0.00 0.00 62 1010.7
20260507213330 62 192 2.0 9.0 0.00 0.00 0.00 61 1010.7
20260507213238 62 330 5.0 9.0 0.00 0.00 0.00 61 1010.7
20260507213149 62 330 2.0 9.0 0.00 0.00 0.00 61 1010.7
20260507213026 62 112 2.0 9.0 0.00 0.00 0.00 62 1010.7
20260507212930 62 213 5.0 9.0 0.00 0.00 0.00 61 1010.7
20260507212848 62 330 5.0 9.0 0.00 0.00 0.00 61 1010.6
20260507212744 62 332 6.0 9.0 0.00 0.00 0.00 61 1010.6
20260507212703 62 332 7.0 9.0 0.00 0.00 0.00 62 1010.6
20260507212539 62 332 5.0 9.0 0.00 0.00 0.00 61 1010.6
20260507212429 62 330 3.0 8.0 0.00 0.00 0.00 61 1010.6
20260507212325 62 332 4.0 11.0 0.00 0.00 0.00 63 1010.6
20260507212242 62 332 4.0 11.0 0.00 0.00 0.00 63 1010.6
20260507212201 62 332 2.0 11.0 0.00 0.00 0.00 61 1010.6
20260507212058 62 318 3.0 11.0 0.00 0.00 0.00 61 1010.6
20260507211954 62 326 4.0 11.0 0.00 0.00 0.00 63 1010.6
20260507211850 62 329 3.0 11.0 0.00 0.00 0.00 62 1010.6
20260507211751 62 322 5.0 11.0 0.00 0.00 0.00 61 1010.6
20260507211700 62 336 4.0 11.0 0.00 0.00 0.00 62 1010.6
20260507211535 61 325 5.0 11.0 0.00 0.00 0.00 63 1010.6
20260507211431 61 326 8.0 13.0 0.00 0.00 0.00 63 1010.6
20260507211327 61 319 5.0 13.0 0.00 0.00 0.00 64 1010.7
20260507211246 61 333 7.0 13.0 0.00 0.00 0.00 62 1010.7
20260507211143 61 329 7.0 13.0 0.00 0.00 0.00 62 1010.7
20260507211041 61 330 7.0 13.0 0.00 0.00 0.00 65 1010.7
20260507210936 61 326 6.0 13.0 0.00 0.00 0.00 64 1010.7
20260507210833 61 328 4.0 13.0 0.00 0.00 0.00 64 1010.7
20260507210731 61 121 3.0 13.0 0.00 0.00 0.00 63 1010.7
20260507210629 61 330 5.0 13.0 0.00 0.00 0.00 65 1010.7
20260507210525 61 335 4.0 13.0 0.00 0.00 0.00 65 1010.7
20260507210443 61 330 5.0 12.0 0.00 0.00 0.00 63 1010.7
20260507210340 61 330 5.0 12.0 0.00 0.00 0.00 63 1010.7
20260507210300 61 330 6.0 12.0 0.00 0.00 0.00 64 1010.7
20260507210208 61 332 4.0 12.0 0.00 0.00 0.00 63 1010.7
20260507210043 61 330 4.0 12.0 0.00 0.00 0.00 63 1010.7
20260507205941 61 330 5.0 12.0 0.00 0.00 0.00 63 1010.7
20260507205836 61 330 8.0 12.0 0.00 0.00 0.00 63 1010.6
20260507205731 61 337 9.0 13.0 0.00 0.00 0.00 64 1010.6
20260507205629 61 332 4.0 13.0 0.00 0.00 0.00 62 1010.6
20260507205530 61 332 5.0 13.0 0.00 0.00 0.00 64 1010.6
20260507205426 61 325 5.0 13.0 0.00 0.00 0.00 64 1010.6
20260507205344 61 330 5.0 13.0 0.00 0.00 0.00 64 1010.6
20260507205241 61 330 8.0 13.0 0.00 0.00 0.00 65 1010.6
20260507205136 61 328 9.0 13.0 0.00 0.00 0.00 63 1010.6
20260507205035 61 337 8.0 13.0 0.00 0.00 0.00 62 1010.6
20260507204931 61 323 8.0 13.0 0.00 0.00 0.00 62 1010.6
20260507204833 61 339 8.0 12.0 0.00 0.00 0.00 62 1010.6
20260507204750 61 337 5.0 12.0 0.00 0.00 0.00 63 1010.6
20260507204720 61 328 2.0 12.0 0.00 0.00 0.00 65 1010.6
20260507204541 61 326 3.0 11.0 0.00 0.00 0.00 63 1010.6
20260507204440 61 330 4.0 11.0 0.00 0.00 0.00 63 1010.6
20260507204339 61 343 4.0 11.0 0.00 0.00 0.00 63 1010.7
20260507204237 61 319 5.0 11.0 0.00 0.00 0.00 63 1010.7
20260507204136 61 354 5.0 11.0 0.00 0.00 0.00 63 1010.7
20260507204054 61 330 4.0 11.0 0.00 0.00 0.00 64 1010.7
20260507203936 61 328 3.0 11.0 0.00 0.00 0.00 65 1010.7
20260507203839 61 322 6.0 11.0 0.00 0.00 0.00 65 1010.7
20260507203737 61 328 8.0 11.0 0.00 0.00 0.00 63 1010.7
20260507203635 61 326 6.0 11.0 0.00 0.00 0.00 65 1010.7
20260507203554 61 343 3.0 11.0 0.00 0.00 0.00 64 1010.7
20260507203430 61 330 3.0 11.0 0.00 0.00 0.00 64 1010.7
20260507203329 61 315 1.0 11.0 0.00 0.00 0.00 66 1010.7
20260507203228 61 330 5.0 11.0 0.00 0.00 0.00 65 1010.7
20260507203158 61 328 6.0 11.0 0.00 0.00 0.00 65 1010.7
20260507203101 61 330 6.0 11.0 0.00 0.00 0.00 66 1010.7
20260507202938 61 320 7.0 11.0 0.00 0.00 0.00 66 1010.7
20260507202837 61 325 7.0 10.0 0.00 0.00 0.00 65 1010.7
20260507202755 61 360 7.0 10.0 0.00 0.00 0.00 66 1010.7
20260507202632 61 328 4.0 8.0 0.00 0.00 0.00 67 1010.7
20260507202531 61 330 6.0 8.0 0.00 0.00 0.00 66 1010.7
20260507202431 61 349 4.0 9.0 0.00 0.00 0.00 65 1010.7
20260507202335 61 343 1.0 9.0 0.00 0.00 0.00 67 1010.7
20260507202234 61 337 2.0 9.0 0.00 0.00 0.00 68 1010.7
20260507202132 61 316 4.0 10.0 0.00 0.00 0.00 66 1010.7
20260507202031 61 330 4.0 10.0 0.00 0.00 0.00 66 1010.7
20260507201930 61 330 3.0 10.0 0.00 0.00 0.00 67 1010.7
20260507201828 61 330 3.0 10.0 0.00 0.00 0.00 68 1010.7
20260507201727 61 328 4.0 12.0 0.00 0.00 0.00 66 1010.7
20260507201659 61 326 6.0 12.0 0.00 0.00 0.00 66 1010.7
20260507201538 61 330 6.0 12.0 0.00 0.00 0.00 67 1010.7
20260507201436 61 322 7.0 12.0 0.00 0.00 0.00 66 1010.7
20260507201335 61 325 7.0 12.0 0.00 0.00 0.00 66 1010.4
20260507201233 61 330 5.0 12.0 0.00 0.00 0.00 66 1010.4
20260507201132 61 292 4.0 13.0 0.00 0.00 0.00 67 1010.4
20260507201030 61 330 5.0 13.0 0.00 0.00 0.00 65 1010.4
20260507200932 61 329 6.0 13.0 0.00 0.00 0.00 66 1010.4
20260507200830 61 330 5.0 13.0 0.00 0.00 0.00 65 1010.4
20260507200729 61 330 7.0 13.0 0.00 0.00 0.00 66 1010.4
20260507200627 61 332 4.0 13.0 0.00 0.00 0.00 65 1010.4
20260507200527 61 330 4.0 13.0 0.00 0.00 0.00 64 1010.4
20260507200426 61 294 8.0 13.0 0.00 0.00 0.00 63 1010.4
20260507200328 61 330 8.0 13.0 0.00 0.00 0.00 63 1010.4
20260507200238 62 329 7.0 16.0 0.00 0.00 0.00 65 1010.4
20260507200148 62 326 3.0 16.0 0.00 0.00 0.00 65 1010.4
20260507200044 62 330 6.0 16.0 0.00 0.00 0.00 64 1010.4
20260507195940 62 328 6.0 16.0 0.00 0.00 0.00 65 1010.4
20260507195839 62 326 2.0 16.0 0.00 0.00 0.00 66 1010.7
20260507195737 62 330 4.0 16.0 0.00 0.00 0.00 64 1010.7
20260507195635 62 333 9.0 16.0 0.00 0.00 0.00 63 1010.7
20260507195533 62 329 8.0 16.0 0.00 0.00 0.00 64 1010.7
20260507195436 62 329 9.0 16.0 0.00 0.00 0.00 67 1010.7
20260507195335 62 328 2.0 9.0 0.00 0.00 0.00 67 1010.7
20260507195234 62 323 3.0 9.0 0.00 0.00 0.00 66 1010.7
20260507195133 62 335 3.0 10.0 0.00 0.00 0.00 67 1010.7
20260507195032 61 326 5.0 12.0 0.00 0.00 0.00 67 1010.7
20260507194930 61 323 1.0 12.0 0.00 0.00 0.00 66 1010.7
20260507194833 61 330 4.0 12.0 0.00 0.00 0.00 66 1010.7
20260507194731 61 329 2.0 14.0 0.00 0.00 0.00 66 1010.7
20260507194702 61 329 1.0 14.0 0.00 0.00 0.00 66 1010.7
20260507194540 61 147 3.0 14.0 0.00 0.00 0.00 65 1010.7
20260507194439 61 49 5.0 14.0 0.00 0.00 0.00 64 1010.7
20260507194337 61 301 5.0 14.0 0.00 0.00 0.00 65 1010.6
20260507194235 61 326 9.0 14.0 0.00 0.00 0.00 63 1010.6
20260507194139 61 336 7.0 14.0 0.00 0.00 0.00 65 1010.6
20260507194037 61 337 6.0 14.0 0.00 0.00 0.00 65 1010.6
20260507193936 61 328 7.0 14.0 0.00 0.00 0.00 66 1010.6
20260507193835 61 330 0.0 12.0 0.00 0.00 0.00 65 1010.6
20260507193733 61 336 5.0 12.0 0.00 0.00 0.00 65 1010.6
20260507193631 61 340 5.0 12.0 0.00 0.00 0.00 63 1010.6
20260507193530 61 329 6.0 12.0 0.00 0.00 0.00 64 1010.6
20260507193432 61 326 9.0 12.0 0.00 0.00 0.00 65 1010.6
20260507193331 61 350 6.0 12.0 0.00 0.00 0.00 64 1010.6
20260507193249 61 326 8.0 12.0 0.00 0.00 0.00 66 1010.6
20260507193158 61 322 4.0 12.0 0.00 0.00 0.00 66 1010.6
20260507193034 61 344 5.0 12.0 0.00 0.00 0.00 64 1010.6
20260507192933 61 330 3.0 12.0 0.00 0.00 0.00 63 1010.6
20260507192833 61 346 3.0 12.0 0.00 0.00 0.00 62 1010.5
20260507192737 61 347 4.0 12.0 0.00 0.00 0.00 65 1010.5
20260507192655 61 347 7.0 12.0 0.00 0.00 0.00 63 1010.5
20260507192535 61 339 8.0 12.0 0.00 0.00 0.00 65 1010.5
20260507192434 61 322 6.0 12.0 0.00 0.00 0.00 64 1010.5
20260507192332 61 333 5.0 12.0 0.00 0.00 0.00 65 1010.5
20260507192230 61 346 6.0 12.0 0.00 0.00 0.00 64 1010.5
20260507192129 61 346 6.0 12.0 0.00 0.00 0.00 65 1010.5
20260507192032 61 208 7.0 12.0 0.00 0.00 0.00 65 1010.5
20260507191950 61 263 7.0 11.0 0.00 0.00 0.00 65 1010.5
20260507191827 61 330 8.0 11.0 0.00 0.00 0.00 66 1010.5
20260507191737 61 325 3.0 11.0 0.00 0.00 0.00 67 1010.5
20260507191647 61 328 2.0 14.0 0.00 0.00 0.00 65 1010.5
20260507191525 61 328 2.0 14.0 0.00 0.00 0.00 65 1010.5
20260507191424 60 328 3.0 14.0 0.00 0.00 0.00 66 1010.5
20260507191342 60 330 2.0 14.0 0.00 0.00 0.00 66 1010.5
20260507191224 60 326 7.0 14.0 0.00 0.00 0.00 64 1010.5
20260507191142 60 326 3.0 14.0 0.00 0.00 0.00 64 1010.5
20260507191041 60 360 5.0 14.0 0.00 0.00 0.00 65 1010.5
20260507190940 60 349 4.0 14.0 0.00 0.00 0.00 64 1010.5
20260507190838 60 268 6.0 14.0 0.00 0.00 0.00 65 1010.5
20260507190756 60 328 9.0 14.0 0.00 0.00 0.00 66 1010.5
20260507190654 60 319 4.0 13.0 0.00 0.00 0.00 63 1010.5
20260507190531 60 320 8.0 13.0 0.00 0.00 0.00 64 1010.5
20260507190433 60 325 9.0 13.0 0.00 0.00 0.00 65 1010.5
20260507190352 60 322 7.0 13.0 0.00 0.00 0.00 65 1010.5
20260507190229 60 329 7.0 12.0 0.00 0.00 0.00 67 1010.5
20260507190159 60 330 5.0 12.0 0.00 0.00 0.00 67 1010.5
20260507190057 60 339 3.0 12.0 0.00 0.00 0.00 67 1010.5
20260507185955 60 325 1.0 12.0 0.00 0.00 0.00 66 1010.5
20260507185831 60 325 4.0 12.0 0.00 0.00 0.00 67 1010.6
20260507185729 60 332 1.0 12.0 0.00 0.00 0.00 64 1010.6
20260507185633 60 337 3.0 12.0 0.00 0.00 0.00 64 1010.6
20260507185530 60 312 2.0 12.0 0.00 0.00 0.00 64 1010.6
20260507185428 60 329 4.0 12.0 0.00 0.00 0.00 64 1010.6
20260507185327 60 330 9.0 12.0 0.00 0.00 0.00 67 1010.6
20260507185226 60 328 7.0 12.0 0.00 0.00 0.00 67 1010.6
20260507185125 60 328 8.0 12.0 0.00 0.00 0.00 67 1010.6
20260507185043 60 330 7.0 12.0 0.00 0.00 0.00 65 1010.6
20260507184941 60 330 5.0 12.0 0.00 0.00 0.00 67 1010.6
20260507184842 60 330 4.0 12.0 0.00 0.00 0.00 66 1010.6
20260507184741 60 342 7.0 12.0 0.00 0.00 0.00 66 1010.6
20260507184712 60 329 8.0 12.0 0.00 0.00 0.00 68 1010.6
20260507184529 60 335 6.0 13.0 0.00 0.00 0.00 67 1010.6
20260507184426 60 329 6.0 13.0 0.00 0.00 0.00 67 1010.6
20260507184344 60 325 4.0 14.0 0.00 0.00 0.00 67 1010.6
20260507184242 60 325 4.0 14.0 0.00 0.00 0.00 68 1010.6
20260507184139 60 326 6.0 14.0 0.00 0.00 0.00 66 1010.6
20260507184038 60 328 6.0 14.0 0.00 0.00 0.00 67 1010.6
20260507183940 60 179 5.0 14.0 0.00 0.00 0.00 68 1010.6
20260507183838 60 326 5.0 14.0 0.00 0.00 0.00 68 1010.6
20260507183737 60 330 7.0 14.0 0.00 0.00 0.00 66 1010.6
20260507183635 60 329 5.0 14.0 0.00 0.00 0.00 69 1010.6
20260507183532 60 329 9.0 14.0 0.00 0.00 0.00 67 1010.6
20260507183431 60 329 2.0 11.0 0.00 0.00 0.00 67 1010.6
20260507183334 60 342 1.0 13.0 0.00 0.00 0.00 68 1010.6
20260507183232 60 330 1.0 13.0 0.00 0.00 0.00 69 1010.6
20260507183202 60 329 5.0 13.0 0.00 0.00 0.00 69 1010.6
20260507183038 60 349 6.0 13.0 0.00 0.00 0.00 66 1010.6
20260507182937 60 332 4.0 13.0 0.00 0.00 0.00 66 1010.6
20260507182836 60 330 7.0 13.0 0.00 0.00 0.00 67 1010.9
20260507182734 60 227 7.0 13.0 0.00 0.00 0.00 66 1010.9
20260507182631 60 298 8.0 13.0 0.00 0.00 0.00 67 1010.9
20260507182533 60 109 11.0 13.0 0.00 0.00 0.00 68 1010.9
20260507182430 60 14 7.0 12.0 0.00 0.00 0.00 69 1010.9
20260507182333 60 313 2.0 12.0 0.00 0.00 0.00 69 1010.9
20260507182252 60 359 5.0 12.0 0.00 0.00 0.00 69 1010.9
20260507182130 60 47 4.0 13.0 0.00 0.00 0.00 68 1010.9
20260507182029 60 61 4.0 13.0 0.00 0.00 0.00 70 1010.9
20260507181927 60 329 6.0 13.0 0.00 0.00 0.00 69 1010.9
20260507181826 60 330 6.0 13.0 0.00 0.00 0.00 68 1010.9
20260507181749 60 330 4.0 13.0 0.00 0.00 0.00 68 1010.9
20260507181658 60 289 4.0 13.0 0.00 0.00 0.00 68 1010.9
20260507181556 60 167 8.0 13.0 0.00 0.00 0.00 66 1010.9
20260507181433 60 311 7.0 13.0 0.00 0.00 0.00 69 1010.9
20260507181335 60 147 8.0 13.0 0.00 0.00 0.00 70 1010.9
20260507181233 60 326 8.0 13.0 0.00 0.00 0.00 69 1010.9
20260507181132 60 329 6.0 12.0 0.00 0.00 0.00 67 1010.9
20260507181031 60 343 4.0 12.0 0.00 0.00 0.00 67 1010.9
20260507180936 60 83 5.0 13.0 0.00 0.00 0.00 67 1010.9
20260507180853 60 335 6.0 13.0 0.00 0.00 0.00 66 1010.9
20260507180731 60 169 2.0 13.0 0.00 0.00 0.00 69 1010.9
20260507180630 60 323 5.0 13.0 0.00 0.00 0.00 70 1010.9
20260507180531 60 123 3.0 13.0 0.00 0.00 0.00 70 1010.9
20260507180450 60 267 7.0 13.0 0.00 0.00 0.00 70 1010.9
20260507180327 60 360 7.0 15.0 0.00 0.00 0.00 69 1010.9
20260507180245 60 344 8.0 15.0 0.00 0.00 0.00 69 1010.9
20260507180219 60 332 9.0 15.0 0.00 0.00 0.00 70 1010.9
20260507180034 60 350 2.0 15.0 0.00 0.00 0.00 71 1010.9
20260507175933 60 336 3.0 15.0 0.00 0.00 0.00 70 1010.9
20260507175832 60 329 4.0 15.0 0.00 0.00 0.00 69 1011.1
20260507175730 60 330 8.0 15.0 0.00 0.00 0.00 71 1011.1
20260507175628 60 329 6.0 15.0 0.00 0.00 0.00 69 1011.1
20260507175525 60 320 7.0 15.0 0.00 0.00 0.00 69 1011.1
20260507175428 60 330 4.0 14.0 0.00 0.00 0.00 69 1011.1
20260507175346 60 332 6.0 14.0 0.00 0.00 0.00 71 1011.1
20260507175307 60 326 8.0 14.0 0.00 0.00 0.00 70 1011.1
20260507175202 59 330 6.0 14.0 0.00 0.00 0.00 68 1011.1
20260507175039 59 71 5.0 14.0 0.00 0.00 0.00 68 1011.1
20260507174938 59 353 8.0 14.0 0.00 0.00 0.00 68 1011.1
20260507174836 59 329 10.0 16.0 0.00 0.00 0.00 69 1011.1
20260507174736 59 330 9.0 16.0 0.00 0.00 0.00 69 1011.1
20260507174713 59 82 10.0 16.0 0.00 0.00 0.00 69 1011.1
20260507174529 59 330 7.0 16.0 0.00 0.00 0.00 69 1011.1
20260507174447 59 182 5.0 16.0 0.00 0.00 0.00 68 1011.1
20260507174324 59 344 4.0 16.0 0.00 0.00 0.00 70 1011.3
20260507174224 59 162 6.0 16.0 0.00 0.00 0.00 71 1011.3
20260507174143 59 76 7.0 16.0 0.00 0.00 0.00 68 1011.3
20260507174042 59 18 10.0 16.0 0.00 0.00 0.00 70 1011.3
20260507173939 59 326 6.0 16.0 0.00 0.00 0.00 71 1011.3
20260507173842 59 328 9.0 12.0 0.00 0.00 0.00 70 1011.3
20260507173800 59 168 8.0 12.0 0.00 0.00 0.00 69 1011.3
20260507173636 59 347 2.0 11.0 0.00 0.00 0.00 69 1011.3
20260507173536 59 254 2.0 11.0 0.00 0.00 0.00 69 1011.3
20260507173454 59 222 4.0 11.0 0.00 0.00 0.00 69 1011.3
20260507173331 59 291 6.0 11.0 0.00 0.00 0.00 69 1011.3
20260507173240 59 175 7.0 11.0 0.00 0.00 0.00 69 1011.3
20260507173151 59 296 6.0 11.0 0.00 0.00 0.00 70 1011.3
20260507173027 59 116 3.0 11.0 0.00 0.00 0.00 72 1011.3
20260507172928 59 330 4.0 11.0 0.00 0.00 0.00 71 1011.3
20260507172847 59 333 7.0 12.0 0.00 0.00 0.00 70 1011.5
20260507172724 59 315 6.0 12.0 0.00 0.00 0.00 71 1011.5
20260507172642 59 330 3.0 12.0 0.00 0.00 0.00 71 1011.5
20260507172540 59 330 5.0 12.0 0.00 0.00 0.00 71 1011.5
20260507172439 59 330 3.0 12.0 0.00 0.00 0.00 71 1011.5
20260507172337 59 330 5.0 12.0 0.00 0.00 0.00 69 1011.5
20260507172255 59 130 6.0 12.0 0.00 0.00 0.00 70 1011.5
20260507172136 59 316 5.0 12.0 0.00 0.00 0.00 71 1011.5
20260507172055 59 244 8.0 12.0 0.00 0.00 0.00 72 1011.5
20260507171932 59 328 7.0 12.0 0.00 0.00 0.00 71 1011.5
20260507171829 58 330 3.0 12.0 0.00 0.00 0.00 71 1011.5
20260507171738 58 330 5.0 14.0 0.00 0.00 0.00 74 1011.5
20260507171648 58 353 8.0 14.0 0.00 0.00 0.00 72 1011.5
20260507171526 58 128 8.0 14.0 0.00 0.00 0.00 72 1011.5
20260507171446 58 330 7.0 14.0 0.00 0.00 0.00 72 1011.5
20260507171327 58 332 10.0 14.0 0.00 0.00 0.00 72 1011.3
20260507171245 58 217 7.0 14.0 0.00 0.00 0.00 72 1011.3
20260507171143 58 261 6.0 14.0 0.00 0.00 0.00 71 1011.3
20260507171041 58 27 8.0 14.0 0.00 0.00 0.00 71 1011.3
20260507170940 58 323 10.0 14.0 0.00 0.00 0.00 72 1011.3
20260507170857 58 295 10.0 14.0 0.00 0.00 0.00 73 1011.3
20260507170754 58 326 8.0 12.0 0.00 0.00 0.00 75 1011.3
20260507170632 58 326 5.0 12.0 0.00 0.00 0.00 75 1011.3
20260507170531 58 330 9.0 12.0 0.00 0.00 0.00 76 1011.3
20260507170433 58 329 6.0 12.0 0.00 0.00 0.00 77 1011.3
20260507170350 58 360 2.0 12.0 0.00 0.00 0.00 77 1011.3
20260507170240 58 332 2.0 16.0 0.00 0.00 0.00 76 1011.3
20260507170150 58 182 5.0 16.0 0.00 0.00 0.00 75 1011.3
20260507170026 58 337 8.0 16.0 0.00 0.00 0.00 74 1011.3
20260507165924 58 306 9.0 16.0 0.00 0.00 0.00 74 1011.3
20260507165842 58 330 8.0 16.0 0.00 0.00 0.00 75 1011.6
20260507165740 57 285 6.0 16.0 0.00 0.00 0.00 76 1011.6
20260507165642 57 174 5.0 16.0 0.00 0.00 0.00 76 1011.6
20260507165600 57 136 6.0 16.0 0.00 0.00 0.00 75 1011.6
20260507165458 57 329 8.0 16.0 0.00 0.00 0.00 77 1011.6
20260507165336 57 203 7.0 14.0 0.00 0.00 0.00 77 1011.6
20260507165233 57 272 6.0 14.0 0.00 0.00 0.00 78 1011.6
20260507165132 57 325 2.0 14.0 0.00 0.00 0.00 77 1011.6
20260507165030 57 343 6.0 16.0 0.00 0.00 0.00 76 1011.6
20260507164929 57 329 5.0 16.0 0.00 0.00 0.00 74 1011.6
20260507164831 57 296 11.0 19.0 0.00 0.00 0.00 76 1011.6
20260507164729 57 329 9.0 19.0 0.00 0.00 0.00 77 1011.6
20260507164659 57 332 7.0 19.0 0.00 0.00 0.00 77 1011.6
20260507164537 57 336 8.0 19.0 0.00 0.00 0.00 79 1011.6
20260507164437 57 333 9.0 19.0 0.00 0.00 0.00 78 1011.6
20260507164336 57 281 9.0 19.0 0.00 0.00 0.00 80 1011.6
20260507164235 57 268 8.0 19.0 0.00 0.00 0.00 79 1011.6
20260507164136 56 326 7.0 19.0 0.00 0.00 0.00 79 1011.6
20260507164035 56 346 9.0 19.0 0.00 0.00 0.00 78 1011.6
20260507163935 56 359 9.0 19.0 0.00 0.00 0.00 81 1011.6
20260507163833 57 329 5.0 17.0 0.00 0.00 0.00 82 1011.6
20260507163753 56 330 8.0 17.0 0.00 0.00 0.00 83 1011.6
20260507163630 56 330 5.0 17.0 0.00 0.00 0.00 82 1011.6
20260507163528 56 322 9.0 17.0 0.00 0.00 0.00 82 1011.6
20260507163433 56 333 13.0 17.0 0.00 0.00 0.00 84 1011.6
20260507163332 56 330 9.0 14.0 0.00 0.00 0.00 84 1011.6
20260507163233 56 234 10.0 14.0 0.00 0.00 0.00 83 1011.6
20260507163203 56 333 6.0 14.0 0.00 0.00 0.00 83 1011.6
20260507163041 56 313 5.0 14.0 0.00 0.00 0.00 83 1011.6
20260507162938 56 336 9.0 14.0 0.00 0.00 0.00 82 1011.6
20260507162837 56 38 9.0 13.0 0.00 0.00 0.00 83 1011.2
20260507162739 56 320 9.0 13.0 0.00 0.00 0.00 84 1011.2
20260507162658 56 158 8.0 13.0 0.00 0.00 0.00 84 1011.2
20260507162535 56 323 9.0 13.0 0.00 0.00 0.00 86 1011.2
20260507162454 56 328 5.0 13.0 0.00 0.00 0.00 87 1011.2
20260507162334 56 332 5.0 13.0 0.00 0.00 0.00 88 1011.2
20260507162233 56 126 4.0 13.0 0.00 0.00 0.00 89 1011.2
20260507162132 55 311 8.0 13.0 0.00 0.00 0.00 89 1011.2
20260507162051 55 306 8.0 13.0 0.00 0.00 0.00 89 1011.2
20260507161933 55 337 9.0 13.0 0.00 0.00 0.00 90 1011.2
20260507161831 55 330 7.0 13.0 0.00 0.00 0.00 90 1011.2
20260507161729 55 332 9.0 13.0 0.00 0.00 0.00 92 1011.2
20260507161700 55 329 8.0 16.0 0.00 0.00 0.00 92 1011.2
20260507161539 55 270 8.0 16.0 0.00 0.00 0.00 95 1011.2
20260507161436 55 299 8.0 16.0 0.00 0.00 0.00 96 1011.2
20260507161334 55 326 8.0 16.0 0.00 0.00 0.00 96 1011.3
20260507161238 55 92 8.0 16.0 0.00 0.00 0.00 97 1011.3
20260507161137 55 320 7.0 16.0 0.00 0.00 0.00 100 1011.3
20260507161036 55 178 8.0 16.0 0.00 0.00 0.00 100 1011.3
20260507160935 55 326 9.0 16.0 0.00 0.00 0.00 100 1011.3
20260507160833 55 227 10.0 16.0 0.00 0.00 0.00 100 1011.3
20260507160732 55 313 6.0 16.0 0.00 0.00 0.00 100 1011.3
20260507160630 55 82 8.0 18.0 0.00 0.00 0.00 100 1011.3
20260507160533 55 330 2.0 18.0 0.00 0.00 0.00 100 1011.3
20260507160432 55 191 5.0 18.0 0.00 0.00 0.00 100 1011.3
20260507160330 54 226 7.0 18.0 0.00 0.00 0.00 100 1011.3
20260507160229 54 99 9.0 18.0 0.00 0.00 0.00 100 1011.3
20260507160200 54 320 10.0 19.0 0.00 0.00 0.00 100 1011.3
20260507160037 54 257 10.0 19.0 0.00 0.00 0.00 100 1011.3
20260507155935 54 325 6.0 19.0 0.00 0.00 0.00 100 1011.3
20260507155837 54 332 10.0 20.0 0.00 0.00 0.00 100 1011.1
20260507155735 54 311 9.0 20.0 0.00 0.00 0.00 100 1011.1
20260507155634 53 295 7.0 20.0 0.00 0.00 0.00 100 1011.1
20260507155532 53 298 7.0 20.0 0.00 0.00 0.00 100 1011.1
20260507155430 53 253 10.0 20.0 0.00 0.00 0.00 100 1011.1
20260507155328 53 256 12.0 20.0 0.00 0.00 0.00 100 1011.1
20260507155226 53 136 7.0 21.0 0.00 0.00 0.00 100 1011.1
20260507155149 53 284 14.0 21.0 0.00 0.00 0.00 100 1011.1
20260507155029 53 320 15.0 21.0 0.00 0.00 0.00 100 1011.1
20260507154929 53 287 10.0 21.0 0.00 0.00 0.00 100 1011.1
20260507154827 53 176 12.0 21.0 0.00 0.00 0.00 100 1011.1
20260507154725 53 143 13.0 21.0 0.00 0.00 0.00 100 1011.1
20260507154658 53 319 11.0 21.0 0.00 0.00 0.00 100 1011.1
20260507154536 53 267 11.0 21.0 0.00 0.00 0.00 100 1011.1
20260507154439 53 319 14.0 21.0 0.00 0.00 0.00 100 1011.1
20260507154338 53 291 9.0 20.0 0.00 0.00 0.00 100 1011.2
20260507154236 53 272 13.0 20.0 0.00 0.00 0.00 100 1011.2
20260507154135 53 150 14.0 20.0 0.00 0.00 0.00 100 1011.2
20260507154033 53 323 11.0 20.0 0.00 0.00 0.00 100 1011.2
20260507153935 53 172 10.0 20.0 0.00 0.00 0.00 100 1011.2
20260507153834 53 272 13.0 20.0 0.00 0.00 0.00 100 1011.2
20260507153736 53 257 8.0 17.0 0.00 0.00 0.00 100 1011.2
20260507153655 53 320 5.0 17.0 0.00 0.00 0.00 100 1011.2
20260507153531 53 305 7.0 17.0 0.00 0.00 0.00 100 1011.2
20260507153450 53 205 7.0 17.0 0.00 0.00 0.00 100 1011.2
20260507153328 53 294 9.0 17.0 0.00 0.00 0.00 100 1011.2
20260507153237 53 305 10.0 17.0 0.00 0.00 0.00 100 1011.2
20260507153147 53 339 9.0 17.0 0.00 0.00 0.00 100 1011.2
20260507153024 53 329 7.0 17.0 0.00 0.00 0.00 100 1011.2
20260507152927 53 325 10.0 17.0 0.00 0.00 0.00 100 1011.2
20260507152826 53 304 11.0 16.0 0.00 0.00 0.00 100 1011.2
20260507152724 53 315 10.0 18.0 0.00 0.00 0.00 100 1011.2
20260507152643 53 306 11.0 18.0 0.00 0.00 0.00 100 1011.2
20260507152541 53 308 9.0 18.0 0.00 0.00 0.00 100 1011.2
20260507152440 53 217 10.0 18.0 0.00 0.00 0.00 100 1011.2
20260507152337 53 213 9.0 18.0 0.00 0.00 0.00 100 1011.2
20260507152240 52 329 8.0 18.0 0.00 0.00 0.00 100 1011.2
20260507152138 52 308 7.0 18.0 0.00 0.00 0.00 100 1011.2
20260507152036 52 320 11.0 18.0 0.00 0.00 0.00 100 1011.2
20260507151934 52 320 12.0 18.0 0.00 0.00 0.00 100 1011.2
20260507151833 52 315 5.0 18.0 0.00 0.00 0.00 100 1011.2
20260507151752 52 332 9.0 22.0 0.00 0.00 0.00 100 1011.2
20260507151721 52 328 9.0 22.0 0.00 0.00 0.00 100 1011.2
20260507151537 52 205 7.0 22.0 0.00 0.00 0.00 100 1011.2
20260507151440 52 299 7.0 22.0 0.00 0.00 0.00 100 1011.2
20260507151338 52 152 11.0 22.0 0.00 0.00 0.00 100 1011.2
20260507151300 52 312 8.0 22.0 0.00 0.00 0.00 100 1011.2
20260507151138 52 328 10.0 22.0 0.00 0.00 0.00 100 1011.2
20260507151056 52 322 12.0 22.0 0.00 0.00 0.00 100 1011.2
20260507150954 52 326 15.0 22.0 0.00 0.00 0.00 100 1011.2
20260507150831 52 329 9.0 17.0 0.00 0.00 0.00 100 1011.2
20260507150729 52 328 6.0 17.0 0.00 0.00 0.00 100 1011.2
20260507150632 52 299 4.0 17.0 0.00 0.00 0.00 100 1011.2
20260507150530 51 330 7.0 17.0 0.00 0.00 0.00 100 1011.2
20260507150427 51 336 9.0 17.0 0.00 0.00 0.00 100 1011.2
20260507150327 51 332 7.0 17.0 0.00 0.00 0.00 100 1011.2
20260507150237 51 332 11.0 17.0 0.00 0.00 0.00 100 1011.2
20260507150149 52 209 11.0 17.0 0.00 0.00 0.00 100 1011.2
20260507150025 51 289 12.0 16.0 0.00 0.00 0.00 100 1011.2
20260507145949 51 308 9.0 16.0 0.00 0.00 0.00 100 1011.2
20260507145826 51 306 12.0 19.0 0.00 0.00 0.00 100 1011.2
20260507145725 51 301 12.0 19.0 0.00 0.00 0.00 100 1011.2
20260507145624 51 313 6.0 19.0 0.00 0.00 0.00 100 1011.2
20260507145543 51 329 10.0 19.0 0.00 0.00 0.00 100 1011.2
20260507145440 51 298 11.0 19.0 0.00 0.00 0.00 100 1011.2
20260507145339 51 295 8.0 19.0 0.00 0.00 0.00 100 1011.2
20260507145241 51 316 8.0 19.0 0.00 0.00 0.00 100 1011.2
20260507145140 51 333 9.0 19.0 0.00 0.00 0.00 100 1011.2
20260507145037 51 246 11.0 19.0 0.00 0.00 0.00 100 1011.2
20260507144935 51 285 12.0 19.0 0.00 0.00 0.00 100 1011.2
20260507144834 51 240 13.0 19.0 0.00 0.00 0.00 100 1011.2
20260507144733 51 241 12.0 17.0 0.00 0.00 0.00 100 1011.2
20260507144702 51 278 12.0 16.0 0.00 0.00 0.00 100 1011.2
20260507144541 51 313 12.0 16.0 0.00 0.00 0.00 100 1011.2
20260507144443 51 288 12.0 15.0 0.00 0.00 0.00 100 1011.2
20260507144342 51 330 10.0 19.0 0.00 0.00 0.00 100 1011.1
20260507144241 51 220 8.0 20.0 0.00 0.00 0.00 100 1011.1
20260507144139 51 302 10.0 20.0 0.00 0.00 0.00 100 1011.1
20260507144038 51 294 9.0 20.0 0.00 0.00 0.00 100 1011.1
20260507143938 51 284 11.0 20.0 0.00 0.00 0.00 100 1011.1
20260507143857 51 309 8.0 20.0 0.00 0.00 0.00 100 1011.1
20260507143738 51 58 5.0 20.0 0.00 0.00 0.00 100 1011.1
20260507143637 51 332 7.0 20.0 0.00 0.00 0.00 100 1011.1
20260507143534 51 330 13.0 20.0 0.00 0.00 0.00 100 1011.1
20260507143433 51 236 15.0 20.0 0.00 0.00 0.00 100 1011.1
20260507143332 51 332 9.0 16.0 0.00 0.00 0.00 100 1011.1
20260507143251 51 289 9.0 16.0 0.00 0.00 0.00 100 1011.1
20260507143202 51 323 9.0 16.0 0.00 0.00 0.00 100 1011.1
20260507143039 51 333 10.0 16.0 0.00 0.00 0.00 100 1011.1
20260507142942 51 337 7.0 17.0 0.00 0.00 0.00 100 1011.1
20260507142841 51 330 9.0 17.0 0.00 0.00 0.00 100 1010.8
20260507142739 51 316 9.0 17.0 0.00 0.00 0.00 100 1010.8
20260507142637 51 330 7.0 17.0 0.00 0.00 0.00 100 1010.8
20260507142536 51 326 6.0 17.0 0.00 0.00 0.00 100 1010.8
20260507142454 51 320 5.0 17.0 0.00 0.00 0.00 100 1010.8
20260507142331 51 167 10.0 17.0 0.00 0.00 0.00 100 1010.8
20260507142234 51 328 10.0 17.0 0.00 0.00 0.00 100 1010.8
20260507142132 51 284 10.0 19.0 0.00 0.00 0.00 100 1010.8
20260507142032 51 295 7.0 19.0 0.00 0.00 0.00 100 1010.8
20260507141951 51 261 10.0 19.0 0.00 0.00 0.00 100 1010.8
20260507141828 51 296 9.0 19.0 0.00 0.00 0.00 100 1010.8
20260507141727 51 230 9.0 19.0 0.00 0.00 0.00 100 1010.8
20260507141656 51 333 9.0 19.0 0.00 0.00 0.00 100 1010.8
20260507141538 51 250 10.0 19.0 0.00 0.00 0.00 100 1010.8
20260507141435 51 322 12.0 19.0 0.00 0.00 0.00 100 1010.8
20260507141334 51 265 13.0 19.0 0.00 0.00 0.00 100 1010.7
20260507141233 51 318 8.0 19.0 0.00 0.00 0.00 100 1010.7
20260507141130 51 305 10.0 19.0 0.00 0.00 0.00 100 1010.7
20260507141029 51 248 10.0 19.0 0.00 0.00 0.00 100 1010.7
20260507140927 50 288 8.0 19.0 0.00 0.00 0.00 100 1010.7
20260507140830 50 291 9.0 19.0 0.00 0.00 0.00 100 1010.7
20260507140729 50 243 8.0 19.0 0.00 0.00 0.00 100 1010.7
20260507140628 50 333 9.0 19.0 0.00 0.00 0.00 100 1010.7
20260507140530 50 236 10.0 19.0 0.00 0.00 0.00 100 1010.7
20260507140428 50 193 13.0 19.0 0.00 0.00 0.00 100 1010.7
20260507140325 51 328 14.0 20.0 0.00 0.00 0.00 100 1010.7
20260507140227 50 301 7.0 20.0 0.00 0.00 0.00 100 1010.7
20260507140158 50 328 8.0 21.0 0.00 0.00 0.00 100 1010.7
20260507140038 50 270 12.0 21.0 0.00 0.00 0.00 100 1010.7
20260507135938 50 210 12.0 21.0 0.00 0.00 0.00 100 1010.7
20260507135836 51 326 12.0 21.0 0.00 0.00 0.00 100 1010.6
20260507135735 50 263 12.0 21.0 0.00 0.00 0.00 100 1010.6
20260507135632 51 224 11.0 21.0 0.00 0.00 0.00 100 1010.6
20260507135551 51 254 14.0 21.0 0.00 0.00 0.00 100 1010.6
20260507135432 51 220 15.0 21.0 0.00 0.00 0.00 100 1010.6
20260507135330 51 248 14.0 21.0 0.00 0.00 0.00 100 1010.6
20260507135232 51 282 9.0 21.0 0.00 0.00 0.00 100 1010.6
20260507135130 51 288 12.0 20.0 0.00 0.00 0.00 100 1010.6
20260507135029 51 295 13.0 20.0 0.00 0.00 0.00 100 1010.6
20260507134926 51 285 11.0 20.0 0.00 0.00 0.00 100 1010.6
20260507134825 51 304 14.0 20.0 0.00 0.00 0.00 100 1010.6
20260507134736 51 326 10.0 19.0 0.00 0.00 0.00 100 1010.6
20260507134646 51 333 11.0 19.0 0.00 0.00 0.00 100 1010.6
20260507134524 51 284 11.0 19.0 0.00 0.00 0.00 100 1010.6
20260507134442 51 301 10.0 19.0 0.00 0.00 0.00 100 1010.6
20260507134341 51 80 13.0 19.0 0.00 0.00 0.00 100 1010.2
20260507134238 51 275 10.0 17.0 0.00 0.00 0.00 100 1010.2
20260507134138 51 24 9.0 17.0 0.00 0.00 0.00 100 1010.2
20260507134056 51 330 12.0 17.0 0.00 0.00 0.00 100 1010.2
20260507133938 51 301 13.0 17.0 0.00 0.00 0.00 100 1010.2
20260507133836 51 329 11.0 17.0 0.00 0.00 0.00 100 1010.2
20260507133736 51 114 11.0 17.0 0.00 0.00 0.00 100 1010.2
20260507133654 51 329 11.0 19.0 0.00 0.00 0.00 100 1010.2
20260507133532 51 309 11.0 20.0 0.00 0.00 0.00 100 1010.2
20260507133432 51 306 14.0 20.0 0.00 0.00 0.00 100 1010.2
20260507133350 51 312 13.0 20.0 0.00 0.00 0.00 100 1010.2
20260507133232 51 248 11.0 20.0 0.00 0.00 0.00 100 1010.2
20260507133202 51 136 8.0 20.0 0.00 0.00 0.00 100 1010.2
20260507133039 51 213 10.0 20.0 0.00 0.00 0.00 100 1010.2
20260507132938 51 330 12.0 20.0 0.00 0.00 0.00 100 1010.2
20260507132837 51 323 13.0 20.0 0.00 0.00 0.00 100 1010.1
20260507132735 51 332 16.0 20.0 0.00 0.00 0.00 100 1010.1
20260507132635 51 312 14.0 20.0 0.00 0.00 0.00 100 1010.1
20260507132537 51 289 11.0 20.0 0.00 0.00 0.00 100 1010.1
20260507132435 51 308 12.0 20.0 0.00 0.00 0.00 100 1010.1
20260507132333 51 305 17.0 20.0 0.00 0.00 0.00 100 1010.1
20260507132232 51 328 12.0 20.0 0.00 0.00 0.00 100 1010.1
20260507132130 51 318 14.0 19.0 0.00 0.00 0.00 100 1010.1
20260507132029 51 302 13.0 19.0 0.00 0.00 0.00 100 1010.1
20260507131947 51 294 12.0 19.0 0.00 0.00 0.00 100 1010.1
20260507131831 51 299 11.0 19.0 0.00 0.00 0.00 100 1010.1
20260507131729 51 312 14.0 19.0 0.00 0.00 0.00 100 1010.1
20260507131659 51 326 14.0 19.0 0.00 0.00 0.00 100 1010.1
20260507131537 51 335 14.0 19.0 0.00 0.00 0.00 100 1010.1
20260507131434 51 251 12.0 19.0 0.00 0.00 0.00 100 1010.1
20260507131332 51 313 11.0 19.0 0.00 0.00 0.00 100 1009.9
20260507131231 51 305 12.0 19.0 0.00 0.00 0.00 100 1009.9
20260507131149 51 305 8.0 19.0 0.00 0.00 0.00 100 1009.9
20260507131034 51 315 11.0 19.0 0.00 0.00 0.00 100 1009.9
20260507130952 51 323 11.0 19.0 0.00 0.00 0.00 100 1009.9
20260507130830 51 304 11.0 19.0 0.00 0.00 0.00 100 1009.9
20260507130728 51 329 11.0 19.0 0.00 0.00 0.00 100 1009.9
20260507130647 51 284 13.0 19.0 0.00 0.00 0.00 100 1009.9
20260507130545 51 356 13.0 19.0 0.00 0.00 0.00 100 1009.9
20260507130503 51 274 13.0 19.0 0.00 0.00 0.00 100 1009.9
20260507130340 51 280 13.0 19.0 0.00 0.00 0.00 100 1009.9
20260507130237 51 254 12.0 19.0 0.00 0.00 0.00 100 1009.9
20260507130147 51 329 14.0 19.0 0.00 0.00 0.00 100 1009.9
20260507130025 51 325 16.0 20.0 0.00 0.00 0.00 100 1009.9
20260507125947 51 328 12.0 20.0 0.00 0.00 0.00 100 1009.9
20260507125825 51 332 11.0 20.0 0.00 0.00 0.00 100 1010.1
20260507125724 50 315 11.0 20.0 0.00 0.00 0.00 100 1010.1
20260507125643 51 332 10.0 20.0 0.00 0.00 0.00 100 1010.1
20260507125541 50 332 12.0 20.0 0.00 0.00 0.00 100 1010.1
20260507125443 50 330 13.0 20.0 0.00 0.00 0.00 100 1010.1
20260507125342 50 319 12.0 20.0 0.00 0.00 0.00 100 1010.1
20260507125300 50 328 15.0 20.0 0.00 0.00 0.00 100 1010.1
20260507125158 51 329 17.0 20.0 0.00 0.00 0.00 100 1010.1
20260507125055 50 237 11.0 20.0 0.00 0.00 0.00 100 1010.1
20260507124933 50 315 12.0 20.0 0.00 0.00 0.00 100 1010.1
20260507124831 51 287 13.0 20.0 0.00 0.00 0.00 100 1010.1
20260507124741 51 315 12.0 20.0 0.00 0.00 0.00 100 1010.1
20260507124651 51 319 12.0 20.0 0.00 0.00 0.00 100 1010.1
20260507124534 51 278 15.0 20.0 0.00 0.00 0.00 100 1010.1
20260507124433 51 328 15.0 20.0 0.00 0.00 0.00 100 1010.1
20260507124332 51 313 11.0 19.0 0.00 0.00 0.00 100 1009.7
20260507124230 51 316 13.0 19.0 0.00 0.00 0.00 100 1009.7
20260507124132 51 319 14.0 19.0 0.00 0.00 0.00 100 1009.7
20260507124029 51 291 12.0 19.0 0.00 0.00 0.00 100 1009.7
20260507123929 51 260 9.0 19.0 0.00 0.00 0.00 100 1009.7
20260507123832 51 267 13.0 19.0 0.00 0.00 0.00 100 1009.7
20260507123732 51 208 14.0 20.0 0.00 0.00 0.00 100 1009.7
20260507123630 51 282 10.0 20.0 0.00 0.00 0.00 100 1009.7
20260507123531 51 329 9.0 20.0 0.00 0.00 0.00 100 1009.7
20260507123430 51 237 11.0 20.0 0.00 0.00 0.00 100 1009.7
20260507123328 51 270 12.0 20.0 0.00 0.00 0.00 100 1009.7
20260507123242 51 285 9.0 20.0 0.00 0.00 0.00 100 1009.7
20260507123152 51 312 12.0 20.0 0.00 0.00 0.00 100 1009.7
20260507123029 51 253 11.0 20.0 0.00 0.00 0.00 100 1009.7
20260507122928 51 264 13.0 21.0 0.00 0.00 0.00 100 1009.7
20260507122827 51 188 17.0 21.0 0.00 0.00 0.00 100 1009.7
20260507122729 51 285 15.0 21.0 0.00 0.00 0.00 100 1009.7
20260507122629 51 208 13.0 21.0 0.00 0.00 0.00 100 1009.7
20260507122531 51 320 15.0 21.0 0.00 0.00 0.00 100 1009.7
20260507122429 51 308 12.0 21.0 0.00 0.00 0.00 100 1009.7
20260507122328 51 326 14.0 21.0 0.00 0.00 0.00 100 1009.7
20260507122250 51 261 16.0 21.0 0.00 0.00 0.00 100 1009.7
20260507122149 51 312 15.0 21.0 0.00 0.00 0.00 100 1009.7
20260507122026 51 271 16.0 20.0 0.00 0.00 0.00 100 1009.7
20260507121945 51 236 12.0 20.0 0.00 0.00 0.00 100 1009.7
20260507121824 51 282 13.0 20.0 0.00 0.00 0.00 100 1009.7
20260507121728 51 326 13.0 20.0 0.00 0.00 0.00 100 1009.7
20260507121658 51 298 13.0 20.0 0.00 0.00 0.00 100 1009.7
20260507121535 51 320 9.0 20.0 0.00 0.00 0.00 100 1009.7
20260507121436 51 237 11.0 20.0 0.00 0.00 0.00 100 1009.7
20260507121334 51 280 15.0 20.0 0.00 0.00 0.00 100 1009.3
20260507121254 51 281 13.0 20.0 0.00 0.00 0.00 99 1009.3
20260507121152 51 328 13.0 20.0 0.00 0.00 0.00 99 1009.3
20260507121030 51 233 13.0 20.0 0.00 0.00 0.00 99 1009.3
20260507120932 51 220 14.0 20.0 0.00 0.00 0.00 99 1009.3
20260507120853 51 104 10.0 20.0 0.00 0.00 0.00 99 1009.3
20260507120750 51 312 14.0 20.0 0.00 0.00 0.00 99 1009.3
20260507120628 51 299 13.0 20.0 0.00 0.00 0.00 99 1009.3
20260507120526 51 152 13.0 20.0 0.00 0.00 0.00 99 1009.3
20260507120444 51 246 13.0 21.0 0.00 0.00 0.00 99 1009.3
20260507120343 51 305 13.0 21.0 0.00 0.00 0.00 99 1009.3
20260507120232 51 326 13.0 21.0 0.00 0.00 0.00 99 1009.3
20260507120147 51 274 11.0 21.0 0.00 0.00 0.00 99 1009.3
20260507120043 51 312 11.0 21.0 0.00 0.00 0.00 99 1009.3
20260507115942 51 233 14.0 21.0 0.00 0.00 0.00 99 1009.3
20260507115901 51 260 15.0 21.0 0.00 0.00 0.00 99 1009.0
20260507115738 51 247 13.0 21.0 0.00 0.00 0.00 99 1009.0
20260507115657 51 200 14.0 21.0 0.00 0.00 0.00 99 1009.0
20260507115535 51 299 13.0 20.0 0.00 0.00 0.00 99 1009.0
20260507115433 51 236 12.0 20.0 0.00 0.00 0.00 99 1009.0
20260507115337 51 176 12.0 20.0 0.00 0.00 0.00 99 1009.0
20260507115234 51 287 15.0 20.0 0.00 0.00 0.00 99 1009.0
20260507115133 51 294 12.0 20.0 0.00 0.00 0.00 99 1009.0
20260507115032 51 325 13.0 20.0 0.00 0.00 0.00 99 1009.0
20260507114930 51 278 16.0 20.0 0.00 0.00 0.00 99 1009.0
20260507114830 51 291 17.0 20.0 0.00 0.00 0.00 99 1009.0
20260507114738 51 309 13.0 20.0 0.00 0.00 0.00 99 1009.0
20260507114651 51 325 14.0 20.0 0.00 0.00 0.00 99 1009.0
20260507114530 51 229 14.0 20.0 0.00 0.00 0.00 99 1009.0
20260507114429 51 243 13.0 19.0 0.00 0.00 0.00 99 1009.0
20260507114348 51 316 12.0 19.0 0.00 0.00 0.00 99 1009.2
20260507114245 51 326 12.0 19.0 0.00 0.00 0.00 99 1009.2
20260507114144 51 332 12.0 19.0 0.00 0.00 0.00 99 1009.2
20260507114104 51 325 12.0 19.0 0.00 0.00 0.00 99 1009.2
20260507114001 51 264 12.0 19.0 0.00 0.00 0.00 99 1009.2
20260507113838 51 315 15.0 19.0 0.00 0.00 0.00 99 1009.2
20260507113741 51 328 13.0 19.0 0.00 0.00 0.00 99 1009.2
20260507113639 51 313 13.0 19.0 0.00 0.00 0.00 99 1009.2
20260507113539 51 216 14.0 19.0 0.00 0.00 0.00 99 1009.2
20260507113437 51 326 10.0 19.0 0.00 0.00 0.00 99 1009.2
20260507113335 51 301 13.0 19.0 0.00 0.00 0.00 99 1009.2
20260507113253 51 323 9.0 19.0 0.00 0.00 0.00 99 1009.2
20260507113225 51 320 11.0 20.0 0.00 0.00 0.00 99 1009.2
20260507113040 51 309 13.0 20.0 0.00 0.00 0.00 99 1009.2
20260507112924 51 203 12.0 20.0 0.00 0.00 0.00 99 1009.2
20260507112843 51 271 11.0 20.0 0.00 0.00 0.00 99 1008.7
20260507112801 51 326 12.0 20.0 0.00 0.00 0.00 99 1008.7
20260507112640 51 325 13.0 20.0 0.00 0.00 0.00 99 1008.7
20260507112539 51 282 14.0 20.0 0.00 0.00 0.00 99 1008.7
20260507112438 51 308 14.0 20.0 0.00 0.00 0.00 99 1008.7
20260507112340 51 280 13.0 20.0 0.00 0.00 0.00 99 1008.7
20260507112241 51 288 15.0 20.0 0.00 0.00 0.00 99 1008.7
20260507112140 51 288 13.0 21.0 0.00 0.00 0.00 99 1008.7
20260507112038 51 268 13.0 21.0 0.00 0.00 0.00 99 1008.7
20260507111937 51 294 12.0 21.0 0.00 0.00 0.00 99 1008.7
20260507111835 51 298 14.0 21.0 0.00 0.00 0.00 99 1008.7
20260507111735 51 278 14.0 21.0 0.00 0.00 0.00 99 1008.7
20260507111704 51 299 13.0 21.0 0.00 0.00 0.00 99 1008.7
20260507111526 51 291 13.0 21.0 0.00 0.00 0.00 99 1008.7
20260507111424 51 325 13.0 21.0 0.00 0.00 0.00 99 1008.7
20260507111343 51 309 14.0 21.0 0.00 0.00 0.00 99 1008.6
20260507111241 51 302 17.0 21.0 0.00 0.00 0.00 99 1008.6
20260507111139 51 287 13.0 19.0 0.00 0.00 0.00 99 1008.6
20260507111038 51 330 12.0 18.0 0.00 0.00 0.00 99 1008.6
20260507110957 51 330 13.0 18.0 0.00 0.00 0.00 99 1008.6
20260507110839 51 335 12.0 18.0 0.00 0.00 0.00 99 1008.6
20260507110737 51 299 12.0 18.0 0.00 0.00 0.00 99 1008.6
20260507110655 51 330 11.0 18.0 0.00 0.00 0.00 99 1008.6
20260507110533 51 322 12.0 18.0 0.00 0.00 0.00 99 1008.6
20260507110431 51 328 12.0 18.0 0.00 0.00 0.00 99 1008.6
20260507110331 51 315 13.0 19.0 0.00 0.00 0.00 99 1008.6
20260507110240 51 318 12.0 19.0 0.00 0.00 0.00 99 1008.6
20260507110150 51 332 12.0 19.0 0.00 0.00 0.00 99 1008.6
20260507110031 51 325 12.0 19.0 0.00 0.00 0.00 99 1008.6
20260507105949 51 332 11.0 19.0 0.00 0.00 0.00 99 1008.6
20260507105846 51 309 11.0 19.0 0.00 0.00 0.00 99 1008.3
20260507105724 51 302 12.0 19.0 0.00 0.00 0.00 99 1008.3
20260507105641 51 294 12.0 19.0 0.00 0.00 0.00 99 1008.3
20260507105540 51 332 13.0 19.0 0.00 0.00 0.00 99 1008.3
20260507105438 51 274 14.0 19.0 0.00 0.00 0.00 99 1008.3
20260507105358 51 322 15.0 19.0 0.00 0.00 0.00 98 1008.3
20260507105256 51 316 11.0 19.0 0.00 0.00 0.00 98 1008.3
20260507105158 51 326 13.0 19.0 0.00 0.00 0.00 99 1008.3
20260507105035 51 326 13.0 19.0 0.00 0.00 0.00 98 1008.3
20260507104935 51 308 12.0 18.0 0.00 0.00 0.00 99 1008.3
20260507104832 51 332 13.0 19.0 0.00 0.00 0.00 99 1008.3
20260507104743 51 329 14.0 19.0 0.00 0.00 0.00 98 1008.3
20260507104652 51 330 13.0 19.0 0.00 0.00 0.00 98 1008.3
20260507104550 51 328 11.0 19.0 0.00 0.00 0.00 99 1008.3
20260507104425 51 313 13.0 19.0 0.00 0.00 0.00 99 1008.3
20260507104347 51 304 13.0 19.0 0.00 0.00 0.00 99 1008.3
20260507104305 51 328 12.0 19.0 0.00 0.00 0.00 98 1008.3
20260507104202 51 326 12.0 20.0 0.00 0.00 0.00 99 1008.3
20260507104100 51 288 14.0 20.0 0.00 0.00 0.00 99 1008.3
20260507103938 51 265 14.0 20.0 0.00 0.00 0.00 99 1008.3
20260507103837 51 326 13.0 21.0 0.00 0.00 0.00 99 1008.3
20260507103735 51 325 11.0 21.0 0.00 0.00 0.00 99 1008.3
20260507103653 51 323 12.0 21.0 0.00 0.00 0.00 99 1008.3
20260507103531 51 330 14.0 21.0 0.00 0.00 0.00 99 1008.3
20260507103434 51 329 14.0 21.0 0.00 0.00 0.00 99 1008.3
20260507103334 51 216 15.0 21.0 0.00 0.00 0.00 99 1008.3
20260507103233 51 295 13.0 21.0 0.00 0.00 0.00 99 1008.3
20260507103203 51 281 13.0 21.0 0.00 0.00 0.00 99 1008.3
20260507103039 51 335 14.0 21.0 0.00 0.00 0.00 99 1008.3
20260507102938 51 312 15.0 21.0 0.00 0.00 0.00 98 1008.3
20260507102838 51 308 13.0 20.0 0.00 0.00 0.00 98 1008.2
20260507102756 51 308 12.0 20.0 0.00 0.00 0.00 98 1008.2
20260507102638 51 318 14.0 20.0 0.00 0.00 0.00 99 1008.2
20260507102536 51 347 13.0 20.0 0.00 0.00 0.00 99 1008.2
20260507102455 51 326 12.0 20.0 0.00 0.00 0.00 99 1008.2
20260507102353 51 292 15.0 20.0 0.00 0.00 0.00 98 1008.2
20260507102251 51 257 12.0 19.0 0.00 0.00 0.00 99 1008.2
20260507102128 51 263 10.0 19.0 0.00 0.00 0.00 99 1008.2
20260507102026 51 306 13.0 19.0 0.00 0.00 0.00 98 1008.2
20260507101924 51 291 11.0 21.0 0.00 0.00 0.00 98 1008.2
20260507101827 51 278 13.0 21.0 0.00 0.00 0.00 99 1008.2
20260507101725 51 323 13.0 21.0 0.00 0.00 0.00 99 1008.2
20260507101656 51 332 11.0 21.0 0.00 0.00 0.00 99 1008.2
20260507101533 51 333 13.0 21.0 0.00 0.00 0.00 98 1008.2
20260507101432 51 206 14.0 21.0 0.00 0.00 0.00 98 1008.2
20260507101331 51 322 13.0 21.0 0.00 0.00 0.00 98 1007.8
20260507101229 51 330 12.0 21.0 0.00 0.00 0.00 98 1007.8
20260507101133 51 277 14.0 21.0 0.00 0.00 0.00 98 1007.8
20260507101032 51 284 15.0 21.0 0.00 0.00 0.00 98 1007.8
20260507100950 51 271 15.0 21.0 0.00 0.00 0.00 98 1007.8
20260507100827 51 272 13.0 21.0 0.00 0.00 0.00 98 1007.8
20260507100725 51 243 12.0 21.0 0.00 0.00 0.00 98 1007.8
20260507100644 51 302 13.0 21.0 0.00 0.00 0.00 98 1007.8
20260507100542 51 329 15.0 21.0 0.00 0.00 0.00 98 1007.8
20260507100425 51 312 12.0 19.0 0.00 0.00 0.00 98 1007.8
20260507100324 51 333 14.0 19.0 0.00 0.00 0.00 98 1007.8
20260507100243 51 329 13.0 19.0 0.00 0.00 0.00 98 1007.8
20260507100215 51 291 15.0 21.0 0.00 0.00 0.00 98 1007.8
20260507100031 51 302 13.0 22.0 0.00 0.00 0.00 98 1007.8
20260507095929 51 253 14.0 22.0 0.00 0.00 0.00 98 1007.8
20260507095848 51 168 12.0 22.0 0.00 0.00 0.00 98 1008.5
20260507095746 51 332 13.0 22.0 0.00 0.00 0.00 98 1008.5
20260507095625 51 315 16.0 22.0 0.00 0.00 0.00 98 1008.5
20260507095526 51 265 13.0 22.0 0.00 0.00 0.00 98 1008.5
20260507095424 51 320 11.0 22.0 0.00 0.00 0.00 98 1008.5
20260507095342 51 291 14.0 22.0 0.00 0.00 0.00 98 1008.5
20260507095301 51 308 16.0 22.0 0.00 0.00 0.00 98 1008.5
20260507095142 51 308 12.0 20.0 0.00 0.00 0.00 98 1008.5
20260507095040 51 328 14.0 20.0 0.00 0.00 0.00 98 1008.5
20260507094938 51 318 13.0 21.0 0.00 0.00 0.00 98 1008.5
20260507094835 51 319 15.0 21.0 0.00 0.00 0.00 98 1008.5
20260507094738 51 301 11.0 21.0 0.00 0.00 0.00 98 1008.5
20260507094708 51 325 11.0 21.0 0.00 0.00 0.00 98 1008.5
20260507094524 52 325 14.0 21.0 0.00 0.00 0.00 98 1008.5
20260507094443 52 243 11.0 21.0 0.00 0.00 0.00 98 1008.5
20260507094340 52 212 12.0 21.0 0.00 0.00 0.00 98 1007.7
20260507094240 52 295 14.0 21.0 0.00 0.00 0.00 98 1007.7
20260507094137 52 316 15.0 21.0 0.00 0.00 0.00 98 1007.7
20260507094036 52 296 10.0 20.0 0.00 0.00 0.00 98 1007.7
20260507093939 52 233 13.0 24.0 0.00 0.00 0.00 98 1007.7
20260507093837 52 292 12.0 24.0 0.00 0.00 0.00 98 1007.7
20260507093735 52 247 12.0 24.0 0.00 0.00 0.00 98 1007.7
20260507093654 52 330 12.0 24.0 0.00 0.00 0.00 98 1007.7
20260507093531 52 304 14.0 24.0 0.00 0.00 0.00 98 1007.7
20260507093428 52 212 14.0 24.0 0.00 0.00 0.00 98 1007.7
20260507093348 52 191 14.0 24.0 0.00 0.00 0.00 98 1007.7
20260507093306 52 295 12.0 24.0 0.00 0.00 0.00 98 1007.7
20260507093202 52 306 16.0 24.0 0.00 0.00 0.00 98 1007.7
20260507093039 52 102 12.0 20.0 0.00 0.00 0.00 98 1007.7
20260507092938 52 264 13.0 20.0 0.00 0.00 0.00 98 1007.7
20260507092837 52 284 13.0 20.0 0.00 0.00 0.00 98 1008.2
20260507092735 52 313 13.0 20.0 0.00 0.00 0.00 98 1008.2
20260507092634 52 313 15.0 20.0 0.00 0.00 0.00 98 1008.2
20260507092533 52 226 14.0 20.0 0.00 0.00 0.00 98 1008.2
20260507092436 52 124 15.0 20.0 0.00 0.00 0.00 98 1008.2
20260507092334 52 234 13.0 19.0 0.00 0.00 0.00 98 1008.2
20260507092253 52 312 13.0 19.0 0.00 0.00 0.00 98 1008.2
20260507092129 52 326 15.0 19.0 0.00 0.00 0.00 98 1008.2
20260507092028 52 287 17.0 19.0 0.00 0.00 0.00 98 1008.2
20260507091947 52 305 14.0 18.0 0.00 0.00 0.00 98 1008.2
20260507091845 52 227 14.0 18.0 0.00 0.00 0.00 98 1008.2
20260507091733 52 289 12.0 18.0 0.00 0.00 0.00 98 1008.2
20260507091646 52 227 14.0 18.0 0.00 0.00 0.00 98 1008.2
20260507091524 52 246 11.0 17.0 0.00 0.00 0.00 98 1008.2
20260507091443 52 330 12.0 17.0 0.00 0.00 0.00 98 1008.2
20260507091340 52 274 14.0 17.0 0.00 0.00 0.00 98 1008.3
20260507091238 52 319 15.0 17.0 0.00 0.00 0.00 98 1008.3
20260507091158 52 274 12.0 17.0 0.00 0.00 0.00 98 1008.3
20260507091035 52 296 11.0 17.0 0.00 0.00 0.00 98 1008.3
20260507090934 52 270 9.0 17.0 0.00 0.00 0.00 98 1008.3
20260507090852 52 295 11.0 17.0 0.00 0.00 0.00 98 1008.3
20260507090733 52 236 11.0 17.0 0.00 0.00 0.00 98 1008.3
20260507090632 52 86 10.0 19.0 0.00 0.00 0.00 98 1008.3
20260507090530 52 299 10.0 19.0 0.00 0.00 0.00 98 1008.3
20260507090430 52 295 12.0 19.0 0.00 0.00 0.00 98 1008.3
20260507090329 52 318 11.0 19.0 0.00 0.00 0.00 98 1008.3
20260507090239 52 326 10.0 19.0 0.00 0.00 0.00 98 1008.3
20260507090150 52 329 10.0 19.0 0.00 0.00 0.00 98 1008.3
20260507090030 52 292 12.0 19.0 0.00 0.00 0.00 98 1008.3
20260507085929 52 299 13.0 19.0 0.00 0.00 0.00 98 1008.3
20260507085827 52 251 16.0 19.0 0.00 0.00 0.00 98 1008.0
20260507085727 52 328 12.0 17.0 0.00 0.00 0.00 98 1008.0
20260507085624 52 319 11.0 17.0 0.00 0.00 0.00 98 1008.0
20260507085544 52 284 10.0 17.0 0.00 0.00 0.00 98 1008.0
20260507085441 52 69 9.0 18.0 0.00 0.00 0.00 98 1008.0
20260507085404 52 294 9.0 18.0 0.00 0.00 0.00 98 1008.0
20260507085242 52 328 11.0 19.0 0.00 0.00 0.00 98 1008.0
20260507085140 52 306 12.0 19.0 0.00 0.00 0.00 98 1008.0
20260507085039 52 326 12.0 19.0 0.00 0.00 0.00 98 1008.0
20260507084937 52 323 11.0 19.0 0.00 0.00 0.00 98 1008.0
20260507084835 52 302 11.0 19.0 0.00 0.00 0.00 98 1008.0
20260507084734 52 323 12.0 19.0 0.00 0.00 0.00 98 1008.0
20260507084708 52 313 14.0 20.0 0.00 0.00 0.00 98 1008.0
20260507084525 52 316 12.0 20.0 0.00 0.00 0.00 98 1008.0
20260507084424 52 184 16.0 20.0 0.00 0.00 0.00 98 1008.0
20260507084341 52 311 16.0 20.0 0.00 0.00 0.00 98 1008.8
20260507084239 52 328 12.0 20.0 0.00 0.00 0.00 98 1008.8
20260507084138 52 313 9.0 20.0 0.00 0.00 0.00 98 1008.8
20260507084036 52 311 12.0 20.0 0.00 0.00 0.00 98 1008.8
20260507083939 52 219 13.0 20.0 0.00 0.00 0.00 98 1008.8
20260507083858 52 329 15.0 20.0 0.00 0.00 0.00 98 1008.8
20260507083736 52 319 14.0 20.0 0.00 0.00 0.00 98 1008.8
20260507083634 52 298 15.0 18.0 0.00 0.00 0.00 98 1008.8
20260507083533 52 306 14.0 18.0 0.00 0.00 0.00 98 1008.8
20260507083431 52 313 13.0 18.0 0.00 0.00 0.00 98 1008.8
20260507083330 52 318 14.0 18.0 0.00 0.00 0.00 98 1008.8
20260507083243 52 326 11.0 17.0 0.00 0.00 0.00 98 1008.8
20260507083154 52 240 12.0 17.0 0.00 0.00 0.00 98 1008.8
20260507083030 52 254 10.0 17.0 0.00 0.00 0.00 98 1008.8
20260507082929 52 344 11.0 17.0 0.00 0.00 0.00 98 1008.8
20260507082827 52 325 9.0 17.0 0.00 0.00 0.00 98 1008.8
20260507082745 52 326 13.0 17.0 0.00 0.00 0.00 98 1008.8
20260507082642 52 308 11.0 17.0 0.00 0.00 0.00 98 1008.8
20260507082539 52 306 13.0 17.0 0.00 0.00 0.00 98 1008.8
20260507082442 52 301 12.0 17.0 0.00 0.00 0.00 98 1008.8
20260507082342 52 328 10.0 19.0 0.00 0.00 0.00 98 1008.8
20260507082301 52 326 10.0 19.0 0.00 0.00 0.00 98 1008.8
20260507082138 52 250 11.0 19.0 0.00 0.00 0.00 98 1008.8
20260507082037 52 315 9.0 19.0 0.00 0.00 0.00 98 1008.8
20260507081936 52 312 9.0 19.0 0.00 0.00 0.00 98 1008.8
20260507081854 52 322 9.0 19.0 0.00 0.00 0.00 98 1008.8
20260507081732 52 272 11.0 19.0 0.00 0.00 0.00 98 1008.8
20260507081705 52 289 10.0 19.0 0.00 0.00 0.00 98 1008.8
20260507081603 52 315 13.0 19.0 0.00 0.00 0.00 98 1008.8
20260507081441 52 325 12.0 19.0 0.00 0.00 0.00 98 1008.8
20260507081340 52 287 12.0 16.0 0.00 0.00 0.00 98 1007.1
20260507081240 52 278 12.0 18.0 0.00 0.00 0.00 98 1007.1
20260507081200 52 302 11.0 18.0 0.00 0.00 0.00 98 1007.1
20260507081036 52 304 8.0 18.0 0.00 0.00 0.00 98 1007.1
20260507080935 52 59 9.0 18.0 0.00 0.00 0.00 98 1007.1
20260507080837 52 329 11.0 18.0 0.00 0.00 0.00 98 1007.1
20260507080735 52 329 10.0 18.0 0.00 0.00 0.00 98 1007.1
20260507080634 52 329 9.0 18.0 0.00 0.00 0.00 98 1007.1
20260507080532 52 294 10.0 18.0 0.00 0.00 0.00 98 1007.1
20260507080432 52 311 14.0 18.0 0.00 0.00 0.00 98 1007.1
20260507080329 52 329 12.0 18.0 0.00 0.00 0.00 98 1007.1
20260507080231 52 325 12.0 18.0 0.00 0.00 0.00 98 1007.1
20260507080204 52 277 11.0 18.0 0.00 0.00 0.00 98 1007.1
20260507080039 52 309 12.0 18.0 0.00 0.00 0.00 98 1007.1
20260507075937 52 323 12.0 19.0 0.00 0.00 0.00 98 1007.1
20260507075834 52 322 14.0 19.0 0.00 0.00 0.00 98 1007.8
20260507075732 52 165 13.0 19.0 0.00 0.00 0.00 98 1007.8
20260507075630 52 281 16.0 19.0 0.00 0.00 0.00 98 1007.8
20260507075550 52 326 12.0 19.0 0.00 0.00 0.00 98 1007.8
20260507075432 52 223 13.0 19.0 0.00 0.00 0.00 98 1007.8
20260507075330 52 305 12.0 19.0 0.00 0.00 0.00 98 1007.8
20260507075232 52 325 12.0 20.0 0.00 0.00 0.00 98 1007.8
20260507075130 52 322 15.0 20.0 0.00 0.00 0.00 98 1007.8
20260507075027 52 313 14.0 20.0 0.00 0.00 0.00 98 1007.8
20260507074926 52 316 14.0 20.0 0.00 0.00 0.00 98 1007.8
20260507074824 52 325 13.0 20.0 0.00 0.00 0.00 98 1007.8
20260507074757 52 326 12.0 20.0 0.00 0.00 0.00 98 1007.8
20260507074646 52 217 16.0 20.0 0.00 0.00 0.00 98 1007.8
20260507074544 52 148 15.0 20.0 0.00 0.00 0.00 98 1007.8
20260507074421 52 267 15.0 20.0 0.00 0.00 0.00 98 1007.8
20260507074342 52 312 13.0 20.0 0.00 0.00 0.00 98 1009.8
20260507074241 52 305 12.0 20.0 0.00 0.00 0.00 98 1009.8
20260507074139 52 328 13.0 20.0 0.00 0.00 0.00 98 1009.8
20260507074038 52 326 15.0 20.0 0.00 0.00 0.00 98 1009.8
20260507073940 52 287 17.0 20.0 0.00 0.00 0.00 98 1009.8
20260507073839 52 261 16.0 20.0 0.00 0.00 0.00 98 1009.8
20260507073738 52 284 12.0 19.0 0.00 0.00 0.00 98 1009.8
20260507073637 52 308 12.0 19.0 0.00 0.00 0.00 98 1009.8
20260507073535 52 312 13.0 19.0 0.00 0.00 0.00 98 1009.8
20260507073433 52 254 15.0 19.0 0.00 0.00 0.00 98 1009.8
20260507073352 52 200 11.0 18.0 0.00 0.00 0.00 98 1009.8
20260507073233 53 248 11.0 18.0 0.00 0.00 0.00 98 1009.8
20260507073204 52 323 12.0 18.0 0.00 0.00 0.00 98 1009.8
20260507073040 53 130 12.0 18.0 0.00 0.00 0.00 98 1009.8
20260507072942 52 328 13.0 18.0 0.00 0.00 0.00 98 1009.8
20260507072900 53 176 10.0 18.0 0.00 0.00 0.00 98 1008.0
20260507072737 53 323 11.0 18.0 0.00 0.00 0.00 98 1008.0
20260507072635 52 330 12.0 18.0 0.00 0.00 0.00 98 1008.0
20260507072534 52 301 10.0 18.0 0.00 0.00 0.00 98 1008.0
20260507072457 53 328 13.0 19.0 0.00 0.00 0.00 98 1008.0
20260507072335 52 323 10.0 19.0 0.00 0.00 0.00 98 1008.0
20260507072253 53 274 12.0 19.0 0.00 0.00 0.00 98 1008.0
20260507072130 52 280 13.0 19.0 0.00 0.00 0.00 98 1008.0
20260507072029 52 150 9.0 19.0 0.00 0.00 0.00 98 1008.0
20260507071927 53 251 11.0 19.0 0.00 0.00 0.00 98 1008.0
20260507071826 53 244 14.0 19.0 0.00 0.00 0.00 98 1008.0
20260507071744 53 325 12.0 19.0 0.00 0.00 0.00 98 1008.0
20260507071718 53 305 14.0 19.0 0.00 0.00 0.00 98 1008.0
20260507071536 53 309 14.0 19.0 0.00 0.00 0.00 98 1008.0
20260507071455 53 251 13.0 19.0 0.00 0.00 0.00 98 1008.0
20260507071333 53 325 10.0 19.0 0.00 0.00 0.00 98 1008.3
20260507071231 53 278 11.0 19.0 0.00 0.00 0.00 98 1008.3
20260507071131 53 282 11.0 24.0 0.00 0.00 0.00 98 1008.3
20260507071030 53 320 12.0 24.0 0.00 0.00 0.00 98 1008.3
20260507070932 53 257 13.0 24.0 0.00 0.00 0.00 98 1008.3
20260507070831 53 291 14.0 24.0 0.00 0.00 0.00 98 1008.3
20260507070730 53 272 10.0 24.0 0.00 0.00 0.00 98 1008.3
20260507070629 53 263 11.0 24.0 0.00 0.00 0.00 98 1008.3
20260507070548 53 240 9.0 24.0 0.00 0.00 0.00 98 1008.3
20260507070424 53 175 11.0 24.0 0.00 0.00 0.00 98 1008.3
20260507070343 53 102 13.0 24.0 0.00 0.00 0.00 98 1008.3
20260507070233 53 261 12.0 18.0 0.00 0.00 0.00 98 1008.3
20260507070147 53 318 14.0 18.0 0.00 0.00 0.00 98 1008.3
20260507070043 53 246 14.0 18.0 0.00 0.00 0.00 98 1008.3
20260507070003 53 315 12.0 17.0 0.00 0.00 0.00 98 1008.3
20260507065859 53 257 11.0 17.0 0.00 0.00 0.00 98 1008.6
20260507065736 53 198 11.0 17.0 0.00 0.00 0.00 98 1008.6
20260507065636 53 311 12.0 17.0 0.00 0.00 0.00 98 1008.6
20260507065538 53 292 10.0 17.0 0.00 0.00 0.00 98 1008.6
20260507065437 53 325 11.0 17.0 0.00 0.00 0.00 98 1008.6
20260507065339 53 296 11.0 17.0 0.00 0.00 0.00 98 1008.6
20260507065237 53 316 12.0 17.0 0.00 0.00 0.00 98 1008.6
20260507065136 53 86 11.0 17.0 0.00 0.00 0.00 98 1008.6
20260507065034 53 209 10.0 17.0 0.00 0.00 0.00 98 1008.6
20260507064933 53 316 14.0 17.0 0.00 0.00 0.00 98 1008.6
20260507064852 53 356 12.0 17.0 0.00 0.00 0.00 98 1008.6
20260507064728 53 302 14.0 17.0 0.00 0.00 0.00 98 1008.6
20260507064657 53 241 13.0 17.0 0.00 0.00 0.00 98 1008.6
20260507064538 53 316 11.0 17.0 0.00 0.00 0.00 98 1008.6
20260507064437 53 250 9.0 17.0 0.00 0.00 0.00 98 1008.6
20260507064335 53 313 6.0 17.0 0.00 0.00 0.00 98 1007.9
20260507064234 53 319 9.0 17.0 0.00 0.00 0.00 98 1007.9
20260507064130 53 250 11.0 17.0 0.00 0.00 0.00 98 1007.9
20260507064029 53 326 11.0 17.0 0.00 0.00 0.00 98 1007.9
20260507063929 53 181 12.0 17.0 0.00 0.00 0.00 98 1007.9
20260507063831 53 309 11.0 16.0 0.00 0.00 0.00 98 1007.9
20260507063730 53 241 11.0 16.0 0.00 0.00 0.00 98 1007.9
20260507063628 53 316 12.0 18.0 0.00 0.00 0.00 98 1007.9
20260507063527 53 311 12.0 18.0 0.00 0.00 0.00 98 1007.9
20260507063425 53 144 11.0 18.0 0.00 0.00 0.00 98 1007.9
20260507063343 53 289 8.0 18.0 0.00 0.00 0.00 98 1007.9
20260507063227 53 288 10.0 18.0 0.00 0.00 0.00 98 1007.9
20260507063157 53 263 13.0 18.0 0.00 0.00 0.00 98 1007.9
20260507063034 53 193 13.0 18.0 0.00 0.00 0.00 98 1007.9
20260507062952 53 289 13.0 18.0 0.00 0.00 0.00 98 1007.9
20260507062830 53 243 11.0 18.0 0.00 0.00 0.00 98 1008.6
20260507062729 53 247 12.0 18.0 0.00 0.00 0.00 98 1008.6
20260507062628 53 320 9.0 17.0 0.00 0.00 0.00 98 1008.6
20260507062526 53 217 10.0 17.0 0.00 0.00 0.00 98 1008.6
20260507062429 53 328 10.0 17.0 0.00 0.00 0.00 98 1008.6
20260507062327 53 264 9.0 17.0 0.00 0.00 0.00 98 1008.6
20260507062226 53 304 11.0 17.0 0.00 0.00 0.00 98 1008.6
20260507062125 53 236 10.0 17.0 0.00 0.00 0.00 98 1008.6
20260507062024 53 206 14.0 18.0 0.00 0.00 0.00 98 1008.6
20260507061943 53 184 14.0 18.0 0.00 0.00 0.00 98 1008.6
20260507061824 53 202 11.0 18.0 0.00 0.00 0.00 98 1008.6
20260507061753 53 288 12.0 18.0 0.00 0.00 0.00 98 1008.6
20260507061645 53 182 13.0 18.0 0.00 0.00 0.00 98 1008.6
20260507061543 53 140 12.0 18.0 0.00 0.00 0.00 98 1008.6
20260507061442 53 182 11.0 18.0 0.00 0.00 0.00 98 1008.6
20260507061339 53 265 9.0 18.0 0.00 0.00 0.00 98 1009.8
20260507061237 53 313 13.0 18.0 0.00 0.00 0.00 98 1009.8
20260507061135 53 328 11.0 15.0 0.00 0.00 0.00 98 1009.8
20260507061039 53 217 9.0 15.0 0.00 0.00 0.00 98 1009.8
20260507060938 53 333 8.0 14.0 0.00 0.00 0.00 98 1009.8
20260507060837 53 309 9.0 14.0 0.00 0.00 0.00 98 1009.8
20260507060755 53 315 8.0 14.0 0.00 0.00 0.00 98 1009.8
20260507060632 53 287 10.0 14.0 0.00 0.00 0.00 98 1009.8
20260507060533 53 315 11.0 14.0 0.00 0.00 0.00 98 1009.8
20260507060431 53 302 8.0 14.0 0.00 0.00 0.00 98 1009.8
20260507060334 53 311 8.0 14.0 0.00 0.00 0.00 98 1009.8
20260507060254 53 295 12.0 14.0 0.00 0.00 0.00 98 1009.8